GEFSMA_prec_meanprecacc_024.txt.gz
Total_Precipitation_Accumulation
0.06 0.07 0.04 0.02 0.02 0.01 0.01 0.00 0.00 0.00 0.00 0.00 0.00 0.00 0.00 0.00 0.00 0.00 0.00 0.00 0.01 0.01 0.02 0.02 0.02 0.02 0.03 0.04 0.04 0.04 0.03 0.03 0.03 0.02 0.02 0.01 0.01 0.01 0.01 0.01 0.01 0.01 0.01
0.06 0.06 0.03 0.02 0.01 0.00 0.01 0.00 0.00 0.00 0.00 0.00 0.00 0.00 0.00 0.00 0.00 0.00 0.00 0.01 0.02 0.02 0.04 0.05 0.05 0.05 0.05 0.06 0.06 0.06 0.06 0.06 0.06 0.07 0.06 0.05 0.04 0.04 0.04 0.04 0.04 0.03 0.02
0.01 0.01 0.01 0.01 0.00 0.00 0.00 0.00 0.00 0.00 0.00 0.00 0.00 0.00 0.00 0.00 0.00 0.01 0.01 0.02 0.03 0.05 0.05 0.06 0.07 0.07 0.06 0.06 0.07 0.07 0.07 0.08 0.09 0.09 0.09 0.10 0.10 0.09 0.09 0.09 0.08 0.07 0.06
0.00 0.00 0.01 0.01 0.00 0.00 0.00 0.00 0.01 0.01 0.01 0.01 0.01 0.01 0.01 0.02 0.03 0.04 0.04 0.05 0.06 0.07 0.08 0.08 0.08 0.08 0.06 0.05 0.05 0.05 0.07 0.07 0.09 0.10 0.11 0.12 0.13 0.14 0.14 0.14 0.14 0.12 0.10
0.00 0.00 0.01 0.01 0.00 0.00 0.00 0.01 0.02 0.02 0.02 0.02 0.01 0.02 0.03 0.03 0.05 0.07 0.08 0.09 0.09 0.07 0.06 0.06 0.06 0.05 0.05 0.05 0.04 0.04 0.05 0.06 0.09 0.10 0.11 0.12 0.15 0.17 0.17 0.17 0.19 0.18 0.16
0.02 0.02 0.02 0.01 0.01 0.01 0.01 0.01 0.01 0.01 0.00 0.00 0.00 0.01 0.02 0.03 0.05 0.05 0.05 0.05 0.04 0.03 0.03 0.02 0.02 0.03 0.03 0.03 0.03 0.03 0.03 0.04 0.06 0.08 0.08 0.10 0.14 0.16 0.16 0.16 0.17 0.18 0.19
0.03 0.03 0.02 0.02 0.02 0.02 0.01 0.01 0.01 0.00 0.00 0.00 0.00 0.00 0.01 0.01 0.01 0.01 0.01 0.01 0.01 0.01 0.01 0.00 0.00 0.00 0.00 0.01 0.01 0.01 0.02 0.03 0.04 0.08 0.09 0.12 0.14 0.16 0.17 0.16 0.16 0.16 0.17
0.06 0.05 0.04 0.04 0.03 0.02 0.02 0.01 0.00 0.00 0.00 0.00 0.00 0.00 0.00 0.00 0.00 0.00 0.00 0.00 0.00 0.00 0.00 0.00 0.00 0.00 0.00 0.00 0.00 0.00 0.01 0.01 0.02 0.06 0.11 0.18 0.21 0.22 0.21 0.21 0.20 0.20 0.19
0.10 0.08 0.06 0.04 0.03 0.01 0.00 0.00 0.00 0.00 0.00 0.00 0.00 0.00 0.00 0.00 0.00 0.00 0.00 0.00 0.00 0.00 0.00 0.00 0.00 0.00 0.00 0.00 0.00 0.01 0.01 0.01 0.02 0.03 0.08 0.16 0.21 0.22 0.22 0.22 0.22 0.24 0.24
0.09 0.06 0.04 0.02 0.00 0.00 0.00 0.00 0.00 0.00 0.00 0.00 0.00 0.00 0.00 0.01 0.01 0.01 0.00 0.00 0.00 0.00 0.00 0.00 0.00 0.00 0.00 0.00 0.02 0.03 0.02 0.02 0.02 0.03 0.04 0.07 0.10 0.13 0.18 0.24 0.27 0.28 0.28
0.05 0.03 0.01 0.01 0.00 0.00 0.00 0.00 0.00 0.00 0.00 0.00 0.00 0.00 0.00 0.00 0.01 0.01 0.01 0.00 0.00 0.00 0.00 0.00 0.00 0.00 0.00 0.01 0.04 0.06 0.05 0.03 0.02 0.03 0.04 0.07 0.08 0.10 0.14 0.18 0.22 0.25 0.26
0.02 0.01 0.01 0.00 0.00 0.00 0.00 0.00 0.00 0.00 0.00 0.00 0.00 0.00 0.00 0.00 0.00 0.01 0.01 0.01 0.01 0.00 0.00 0.00 0.00 0.00 0.00 0.01 0.02 0.03 0.04 0.04 0.04 0.03 0.03 0.04 0.05 0.06 0.08 0.11 0.15 0.19 0.23
0.01 0.01 0.00 0.00 0.00 0.00 0.00 0.00 0.00 0.00 0.00 0.00 0.00 0.00 0.00 0.00 0.01 0.01 0.01 0.02 0.02 0.01 0.00 0.00 0.00 0.00 0.00 0.00 0.01 0.01 0.04 0.05 0.04 0.03 0.02 0.02 0.02 0.03 0.04 0.05 0.07 0.11 0.16
0.01 0.00 0.00 0.00 0.00 0.00 0.00 0.00 0.00 0.00 0.00 0.00 0.00 0.00 0.00 0.00 0.01 0.01 0.01 0.02 0.02 0.01 0.00 0.00 0.00 0.00 0.00 0.00 0.00 0.01 0.04 0.05 0.04 0.03 0.03 0.02 0.02 0.02 0.02 0.02 0.03 0.04 0.06
0.00 0.00 0.00 0.00 0.00 0.00 0.00 0.00 0.00 0.00 0.00 0.00 0.00 0.00 0.00 0.00 0.01 0.01 0.02 0.03 0.07 0.07 0.04 0.01 0.00 0.00 0.00 0.00 0.01 0.02 0.04 0.05 0.05 0.05 0.04 0.03 0.02 0.02 0.02 0.02 0.02 0.02 0.02
0.00 0.00 0.00 0.00 0.00 0.00 0.00 0.00 0.00 0.00 0.00 0.00 0.01 0.01 0.02 0.02 0.02 0.03 0.04 0.05 0.07 0.12 0.10 0.03 0.01 0.00 0.01 0.01 0.02 0.04 0.05 0.04 0.06 0.06 0.05 0.04 0.04 0.03 0.03 0.03 0.03 0.02 0.02
0.00 0.00 0.00 0.00 0.00 0.00 0.00 0.00 0.00 0.00 0.01 0.01 0.02 0.02 0.03 0.04 0.05 0.05 0.05 0.05 0.06 0.09 0.10 0.04 0.02 0.02 0.04 0.06 0.06 0.09 0.09 0.09 0.09 0.13 0.12 0.11 0.08 0.06 0.05 0.05 0.05 0.05 0.04
0.00 0.00 0.00 0.00 0.00 0.00 0.00 0.01 0.01 0.02 0.03 0.03 0.03 0.04 0.04 0.04 0.06 0.05 0.05 0.04 0.05 0.07 0.09 0.08 0.05 0.05 0.07 0.08 0.09 0.09 0.06 0.05 0.08 0.13 0.13 0.10 0.08 0.07 0.06 0.06 0.05 0.04 0.03
0.01 0.01 0.01 0.01 0.01 0.01 0.01 0.01 0.02 0.02 0.02 0.03 0.03 0.03 0.03 0.03 0.04 0.03 0.04 0.05 0.06 0.07 0.11 0.14 0.11 0.10 0.08 0.06 0.08 0.06 0.07 0.11 0.10 0.11 0.10 0.07 0.05 0.04 0.03 0.03 0.03 0.02 0.02
0.02 0.02 0.02 0.02 0.02 0.01 0.01 0.01 0.01 0.01 0.01 0.01 0.01 0.01 0.02 0.02 0.03 0.05 0.06 0.07 0.09 0.11 0.13 0.14 0.11 0.08 0.06 0.05 0.07 0.07 0.08 0.12 0.12 0.09 0.07 0.04 0.03 0.02 0.02 0.03 0.04 0.03 0.01
0.03 0.02 0.02 0.01 0.01 0.00 0.00 0.00 0.00 0.00 0.00 0.00 0.01 0.01 0.01 0.02 0.04 0.07 0.08 0.09 0.12 0.13 0.13 0.13 0.10 0.07 0.05 0.04 0.06 0.08 0.12 0.12 0.09 0.06 0.04 0.03 0.04 0.04 0.06 0.07 0.07 0.06 0.03
0.01 0.01 0.00 0.00 0.00 0.00 0.00 0.00 0.00 0.00 0.00 0.01 0.01 0.02 0.01 0.01 0.03 0.05 0.07 0.10 0.13 0.14 0.14 0.12 0.10 0.08 0.05 0.06 0.11 0.16 0.21 0.18 0.12 0.06 0.07 0.06 0.05 0.06 0.08 0.11 0.14 0.11 0.06
0.00 0.00 0.00 0.00 0.00 0.00 0.00 0.00 0.00 0.00 0.01 0.02 0.03 0.03 0.02 0.01 0.03 0.04 0.05 0.06 0.06 0.07 0.11 0.15 0.15 0.12 0.12 0.15 0.24 0.27 0.25 0.22 0.18 0.14 0.17 0.14 0.08 0.09 0.10 0.17 0.26 0.23 0.17
0.00 0.00 0.00 0.00 0.01 0.01 0.00 0.00 0.00 0.00 0.01 0.02 0.03 0.03 0.04 0.03 0.04 0.05 0.04 0.03 0.03 0.04 0.10 0.16 0.22 0.23 0.26 0.28 0.33 0.35 0.32 0.28 0.21 0.17 0.19 0.19 0.10 0.11 0.15 0.24 0.38 0.41 0.32
0.00 0.00 0.00 0.01 0.01 0.02 0.00 0.00 0.00 0.00 0.01 0.01 0.01 0.02 0.03 0.04 0.05 0.07 0.05 0.04 0.04 0.06 0.13 0.27 0.37 0.40 0.41 0.41 0.40 0.37 0.34 0.30 0.26 0.21 0.19 0.22 0.18 0.15 0.22 0.34 0.41 0.54 0.47
0.01 0.00 0.00 0.01 0.02 0.03 0.01 0.00 0.01 0.01 0.01 0.01 0.01 0.01 0.03 0.06 0.08 0.08 0.05 0.06 0.08 0.11 0.24 0.42 0.50 0.50 0.44 0.41 0.40 0.37 0.33 0.30 0.30 0.30 0.24 0.25 0.26 0.21 0.27 0.43 0.49 0.43 0.38

GEFSMA_prec_meanprecacc_030.txt.gz
Total_Precipitation_Accumulation
0.06 0.07 0.04 0.02 0.02 0.01 0.01 0.00 0.00 0.00 0.00 0.00 0.00 0.00 0.00 0.00 0.00 0.00 0.00 0.00 0.01 0.02 0.03 0.04 0.05 0.05 0.06 0.07 0.06 0.06 0.05 0.04 0.04 0.04 0.03 0.02 0.01 0.01 0.01 0.02 0.02 0.02 0.03
0.06 0.06 0.03 0.02 0.01 0.01 0.01 0.00 0.00 0.00 0.00 0.00 0.00 0.00 0.00 0.00 0.00 0.00 0.00 0.01 0.02 0.03 0.06 0.08 0.08 0.08 0.09 0.10 0.10 0.09 0.09 0.08 0.09 0.09 0.07 0.06 0.05 0.05 0.05 0.05 0.05 0.05 0.04
0.02 0.01 0.01 0.01 0.01 0.00 0.01 0.01 0.00 0.00 0.00 0.00 0.00 0.00 0.00 0.00 0.00 0.01 0.01 0.02 0.03 0.05 0.07 0.09 0.10 0.10 0.09 0.11 0.12 0.11 0.12 0.12 0.12 0.12 0.11 0.11 0.11 0.10 0.10 0.10 0.10 0.09 0.08
0.01 0.01 0.02 0.02 0.02 0.02 0.02 0.02 0.02 0.02 0.02 0.02 0.02 0.02 0.02 0.03 0.03 0.04 0.04 0.05 0.06 0.07 0.08 0.09 0.10 0.10 0.08 0.08 0.08 0.10 0.11 0.12 0.13 0.14 0.15 0.16 0.17 0.17 0.16 0.16 0.16 0.14 0.12
0.03 0.05 0.06 0.07 0.06 0.06 0.06 0.05 0.06 0.06 0.05 0.04 0.03 0.04 0.04 0.04 0.06 0.07 0.08 0.09 0.09 0.07 0.06 0.06 0.07 0.06 0.06 0.06 0.06 0.06 0.07 0.09 0.13 0.15 0.16 0.17 0.21 0.23 0.21 0.21 0.22 0.21 0.18
0.12 0.13 0.12 0.12 0.11 0.10 0.09 0.08 0.06 0.05 0.03 0.03 0.02 0.02 0.02 0.03 0.05 0.06 0.05 0.05 0.04 0.03 0.03 0.02 0.03 0.03 0.03 0.03 0.03 0.03 0.04 0.05 0.08 0.11 0.11 0.14 0.19 0.22 0.20 0.19 0.19 0.21 0.21
0.26 0.23 0.21 0.20 0.17 0.14 0.11 0.09 0.06 0.04 0.03 0.02 0.01 0.01 0.01 0.01 0.01 0.01 0.01 0.01 0.01 0.01 0.01 0.00 0.00 0.00 0.00 0.01 0.01 0.01 0.02 0.03 0.05 0.08 0.10 0.13 0.17 0.19 0.19 0.18 0.18 0.18 0.19
0.39 0.37 0.33 0.29 0.24 0.17 0.11 0.08 0.05 0.02 0.01 0.00 0.00 0.00 0.00 0.00 0.00 0.00 0.00 0.00 0.00 0.00 0.00 0.00 0.00 0.00 0.00 0.00 0.00 0.00 0.01 0.01 0.02 0.06 0.11 0.19 0.22 0.23 0.23 0.22 0.21 0.21 0.20
0.57 0.49 0.41 0.31 0.22 0.15 0.10 0.05 0.02 0.01 0.00 0.00 0.00 0.00 0.00 0.00 0.00 0.00 0.00 0.00 0.00 0.00 0.00 0.00 0.00 0.00 0.00 0.00 0.00 0.01 0.01 0.01 0.02 0.03 0.09 0.16 0.21 0.23 0.23 0.23 0.23 0.25 0.25
0.61 0.48 0.37 0.26 0.17 0.10 0.05 0.02 0.01 0.00 0.00 0.00 0.00 0.00 0.00 0.01 0.01 0.01 0.00 0.00 0.00 0.00 0.00 0.00 0.00 0.00 0.00 0.00 0.02 0.03 0.02 0.02 0.02 0.03 0.04 0.07 0.10 0.13 0.18 0.25 0.28 0.29 0.30
0.51 0.38 0.25 0.14 0.07 0.03 0.01 0.01 0.00 0.00 0.00 0.00 0.00 0.00 0.00 0.00 0.01 0.01 0.01 0.00 0.00 0.00 0.00 0.00 0.00 0.00 0.00 0.01 0.04 0.06 0.05 0.03 0.02 0.03 0.04 0.07 0.09 0.11 0.14 0.19 0.24 0.27 0.29
0.30 0.19 0.10 0.05 0.03 0.02 0.01 0.00 0.00 0.00 0.00 0.00 0.00 0.00 0.00 0.00 0.00 0.01 0.01 0.01 0.01 0.00 0.00 0.00 0.00 0.00 0.00 0.01 0.02 0.03 0.04 0.04 0.04 0.03 0.03 0.04 0.05 0.06 0.09 0.13 0.19 0.24 0.28
0.12 0.08 0.05 0.02 0.01 0.01 0.01 0.00 0.00 0.00 0.00 0.00 0.00 0.00 0.00 0.00 0.01 0.01 0.01 0.02 0.02 0.01 0.00 0.00 0.00 0.00 0.00 0.00 0.01 0.01 0.04 0.05 0.04 0.03 0.02 0.02 0.02 0.03 0.04 0.06 0.10 0.15 0.22
0.06 0.04 0.02 0.01 0.01 0.01 0.00 0.00 0.00 0.00 0.00 0.00 0.00 0.00 0.00 0.00 0.01 0.01 0.01 0.02 0.02 0.01 0.00 0.00 0.00 0.00 0.00 0.00 0.00 0.01 0.04 0.05 0.04 0.03 0.03 0.02 0.02 0.02 0.02 0.03 0.04 0.06 0.09
0.03 0.02 0.01 0.01 0.01 0.00 0.00 0.00 0.00 0.00 0.00 0.00 0.00 0.00 0.00 0.00 0.01 0.01 0.02 0.03 0.07 0.08 0.04 0.01 0.00 0.00 0.00 0.00 0.01 0.02 0.04 0.05 0.05 0.05 0.04 0.03 0.02 0.02 0.02 0.02 0.02 0.03 0.03
0.02 0.01 0.01 0.00 0.00 0.00 0.00 0.00 0.00 0.00 0.00 0.00 0.01 0.01 0.02 0.02 0.02 0.03 0.04 0.05 0.07 0.12 0.10 0.03 0.01 0.00 0.01 0.01 0.02 0.04 0.05 0.04 0.06 0.06 0.05 0.05 0.04 0.04 0.03 0.03 0.03 0.03 0.03
0.01 0.00 0.00 0.00 0.00 0.00 0.00 0.00 0.00 0.00 0.01 0.01 0.02 0.02 0.03 0.04 0.05 0.05 0.05 0.05 0.06 0.09 0.11 0.04 0.02 0.02 0.04 0.06 0.06 0.09 0.09 0.09 0.10 0.13 0.13 0.12 0.10 0.08 0.07 0.07 0.07 0.07 0.06
0.01 0.00 0.00 0.00 0.00 0.00 0.00 0.01 0.01 0.02 0.03 0.03 0.03 0.04 0.04 0.04 0.06 0.05 0.05 0.04 0.05 0.07 0.09 0.08 0.05 0.05 0.07 0.08 0.09 0.09 0.06 0.05 0.08 0.14 0.14 0.11 0.10 0.09 0.09 0.08 0.07 0.07 0.06
0.01 0.01 0.01 0.01 0.01 0.01 0.01 0.01 0.02 0.02 0.02 0.03 0.03 0.03 0.03 0.03 0.04 0.03 0.04 0.05 0.06 0.07 0.11 0.14 0.11 0.10 0.08 0.06 0.08 0.06 0.07 0.11 0.10 0.11 0.10 0.07 0.06 0.05 0.04 0.04 0.04 0.04 0.03
0.02 0.02 0.02 0.02 0.02 0.01 0.01 0.01 0.01 0.01 0.01 0.01 0.01 0.01 0.02 0.02 0.03 0.05 0.06 0.07 0.09 0.11 0.13 0.15 0.12 0.09 0.07 0.05 0.07 0.07 0.09 0.12 0.12 0.09 0.07 0.04 0.03 0.02 0.02 0.04 0.04 0.03 0.02
0.03 0.02 0.02 0.01 0.01 0.00 0.00 0.00 0.00 0.00 0.00 0.00 0.01 0.01 0.01 0.02 0.04 0.07 0.10 0.11 0.13 0.15 0.15 0.15 0.13 0.09 0.06 0.05 0.07 0.09 0.13 0.12 0.09 0.06 0.04 0.03 0.04 0.04 0.06 0.08 0.08 0.06 0.03
0.01 0.01 0.00 0.00 0.00 0.00 0.00 0.00 0.00 0.00 0.00 0.01 0.01 0.02 0.01 0.01 0.03 0.05 0.08 0.11 0.16 0.18 0.17 0.16 0.13 0.10 0.07 0.08 0.12 0.17 0.22 0.19 0.14 0.07 0.07 0.07 0.05 0.06 0.09 0.12 0.15 0.11 0.06
0.00 0.00 0.00 0.00 0.00 0.00 0.00 0.00 0.00 0.00 0.01 0.02 0.03 0.03 0.02 0.02 0.03 0.05 0.06 0.07 0.07 0.09 0.14 0.19 0.19 0.14 0.14 0.17 0.27 0.31 0.28 0.26 0.22 0.16 0.20 0.18 0.09 0.10 0.11 0.19 0.28 0.24 0.18
0.00 0.00 0.00 0.00 0.01 0.01 0.00 0.00 0.00 0.00 0.01 0.02 0.03 0.03 0.04 0.04 0.04 0.06 0.05 0.04 0.03 0.05 0.11 0.18 0.23 0.25 0.28 0.31 0.38 0.41 0.38 0.34 0.25 0.19 0.24 0.25 0.13 0.13 0.17 0.26 0.41 0.43 0.34
0.00 0.00 0.00 0.01 0.01 0.02 0.00 0.00 0.00 0.00 0.01 0.01 0.01 0.02 0.03 0.04 0.06 0.09 0.07 0.05 0.05 0.06 0.14 0.29 0.39 0.44 0.46 0.47 0.47 0.44 0.42 0.37 0.32 0.23 0.23 0.29 0.23 0.18 0.24 0.36 0.44 0.58 0.51
0.01 0.00 0.00 0.01 0.02 0.03 0.01 0.00 0.01 0.01 0.01 0.01 0.01 0.01 0.03 0.07 0.09 0.09 0.06 0.07 0.11 0.13 0.25 0.43 0.52 0.53 0.48 0.46 0.47 0.43 0.40 0.38 0.36 0.34 0.28 0.31 0.31 0.24 0.30 0.45 0.51 0.46 0.41

GEFSMA_prec_meanprecacc_036.txt.gz
Total_Precipitation_Accumulation
0.07 0.08 0.04 0.03 0.02 0.02 0.01 0.01 0.00 0.00 0.00 0.00 0.00 0.00 0.00 0.00 0.00 0.00 0.00 0.00 0.01 0.02 0.03 0.04 0.05 0.05 0.06 0.08 0.08 0.07 0.06 0.05 0.05 0.05 0.03 0.02 0.02 0.01 0.02 0.02 0.03 0.03 0.03
0.08 0.07 0.04 0.04 0.02 0.02 0.01 0.01 0.00 0.00 0.00 0.00 0.00 0.00 0.00 0.00 0.00 0.00 0.00 0.01 0.02 0.03 0.06 0.08 0.08 0.08 0.09 0.11 0.11 0.10 0.10 0.09 0.10 0.10 0.09 0.08 0.06 0.06 0.06 0.05 0.05 0.05 0.04
0.04 0.04 0.04 0.05 0.03 0.03 0.03 0.03 0.02 0.02 0.01 0.01 0.01 0.01 0.01 0.01 0.01 0.01 0.02 0.02 0.03 0.05 0.07 0.09 0.10 0.10 0.10 0.12 0.13 0.13 0.13 0.13 0.13 0.13 0.12 0.13 0.13 0.12 0.12 0.12 0.11 0.10 0.09
0.04 0.06 0.08 0.09 0.09 0.09 0.09 0.08 0.07 0.06 0.07 0.06 0.05 0.05 0.05 0.05 0.05 0.05 0.05 0.06 0.07 0.08 0.08 0.09 0.10 0.10 0.09 0.08 0.10 0.12 0.13 0.13 0.15 0.16 0.16 0.18 0.19 0.19 0.18 0.18 0.18 0.17 0.15
0.11 0.15 0.18 0.20 0.21 0.19 0.18 0.17 0.16 0.14 0.12 0.10 0.07 0.07 0.06 0.05 0.07 0.08 0.09 0.10 0.09 0.08 0.06 0.06 0.07 0.07 0.06 0.07 0.07 0.07 0.08 0.10 0.14 0.16 0.16 0.18 0.23 0.25 0.24 0.24 0.25 0.24 0.21
0.30 0.33 0.32 0.33 0.32 0.28 0.26 0.22 0.18 0.15 0.12 0.10 0.07 0.05 0.04 0.04 0.06 0.06 0.06 0.05 0.04 0.03 0.03 0.03 0.03 0.03 0.03 0.04 0.03 0.03 0.04 0.05 0.08 0.11 0.12 0.15 0.21 0.23 0.22 0.21 0.21 0.22 0.23
0.58 0.55 0.51 0.49 0.44 0.39 0.35 0.29 0.22 0.17 0.14 0.11 0.07 0.04 0.02 0.02 0.01 0.01 0.01 0.01 0.01 0.01 0.01 0.00 0.00 0.00 0.00 0.01 0.01 0.01 0.02 0.03 0.05 0.08 0.10 0.13 0.17 0.20 0.20 0.19 0.19 0.20 0.21
0.88 0.82 0.77 0.72 0.63 0.55 0.46 0.37 0.29 0.21 0.14 0.09 0.05 0.02 0.01 0.00 0.00 0.00 0.00 0.00 0.00 0.00 0.00 0.00 0.00 0.00 0.00 0.00 0.00 0.00 0.01 0.01 0.02 0.06 0.11 0.19 0.22 0.23 0.23 0.23 0.22 0.22 0.22
1.15 1.05 0.94 0.84 0.73 0.63 0.53 0.41 0.28 0.17 0.10 0.04 0.02 0.01 0.01 0.00 0.00 0.00 0.00 0.00 0.00 0.00 0.00 0.00 0.00 0.00 0.00 0.00 0.00 0.01 0.01 0.01 0.02 0.03 0.09 0.16 0.21 0.23 0.23 0.23 0.24 0.26 0.27
1.08 0.94 0.90 0.84 0.72 0.56 0.41 0.27 0.16 0.08 0.04 0.02 0.01 0.01 0.01 0.01 0.01 0.01 0.00 0.00 0.00 0.00 0.00 0.00 0.00 0.00 0.00 0.00 0.02 0.03 0.02 0.02 0.02 0.03 0.04 0.07 0.10 0.14 0.18 0.25 0.29 0.30 0.31
0.86 0.78 0.73 0.64 0.50 0.34 0.20 0.11 0.06 0.03 0.01 0.01 0.01 0.01 0.01 0.01 0.01 0.01 0.01 0.00 0.00 0.00 0.00 0.00 0.00 0.00 0.00 0.01 0.04 0.06 0.05 0.03 0.02 0.03 0.04 0.07 0.09 0.11 0.14 0.19 0.24 0.28 0.30
0.50 0.43 0.34 0.26 0.19 0.12 0.06 0.03 0.02 0.01 0.01 0.01 0.01 0.00 0.00 0.00 0.00 0.01 0.01 0.01 0.01 0.00 0.00 0.00 0.00 0.00 0.00 0.01 0.02 0.03 0.04 0.04 0.04 0.03 0.04 0.04 0.05 0.06 0.09 0.14 0.19 0.25 0.29
0.23 0.18 0.12 0.08 0.05 0.03 0.02 0.01 0.01 0.00 0.00 0.00 0.00 0.00 0.00 0.00 0.01 0.01 0.01 0.02 0.02 0.01 0.00 0.00 0.00 0.00 0.00 0.00 0.01 0.01 0.04 0.05 0.04 0.03 0.02 0.02 0.02 0.03 0.04 0.07 0.11 0.16 0.23
0.11 0.07 0.05 0.03 0.02 0.02 0.01 0.01 0.00 0.00 0.00 0.00 0.00 0.00 0.00 0.00 0.01 0.01 0.01 0.02 0.03 0.01 0.00 0.00 0.00 0.00 0.00 0.00 0.00 0.01 0.04 0.05 0.04 0.03 0.03 0.02 0.02 0.02 0.02 0.03 0.05 0.07 0.09
0.05 0.03 0.02 0.02 0.01 0.01 0.00 0.00 0.00 0.00 0.00 0.00 0.00 0.00 0.00 0.00 0.01 0.01 0.02 0.03 0.07 0.08 0.04 0.01 0.00 0.00 0.00 0.00 0.01 0.02 0.05 0.05 0.05 0.05 0.04 0.03 0.02 0.02 0.02 0.03 0.03 0.03 0.04
0.03 0.02 0.02 0.01 0.01 0.00 0.00 0.00 0.00 0.00 0.00 0.00 0.01 0.01 0.02 0.02 0.02 0.03 0.04 0.05 0.07 0.12 0.10 0.03 0.01 0.00 0.01 0.01 0.02 0.04 0.05 0.04 0.06 0.06 0.06 0.05 0.04 0.04 0.04 0.04 0.04 0.05 0.04
0.01 0.01 0.00 0.00 0.00 0.00 0.00 0.00 0.00 0.00 0.01 0.01 0.02 0.02 0.03 0.04 0.05 0.05 0.05 0.05 0.06 0.09 0.11 0.05 0.02 0.02 0.04 0.06 0.07 0.10 0.09 0.10 0.10 0.13 0.13 0.12 0.10 0.09 0.08 0.09 0.09 0.09 0.08
0.01 0.00 0.00 0.00 0.00 0.00 0.01 0.01 0.01 0.02 0.03 0.03 0.03 0.04 0.04 0.04 0.06 0.05 0.05 0.05 0.05 0.07 0.10 0.09 0.06 0.05 0.07 0.09 0.11 0.11 0.07 0.06 0.09 0.14 0.14 0.11 0.10 0.09 0.09 0.08 0.08 0.07 0.06
0.01 0.01 0.01 0.01 0.01 0.01 0.01 0.01 0.02 0.02 0.02 0.03 0.03 0.03 0.03 0.04 0.04 0.04 0.05 0.06 0.07 0.08 0.13 0.16 0.13 0.11 0.09 0.08 0.10 0.09 0.09 0.13 0.11 0.11 0.10 0.08 0.06 0.05 0.05 0.04 0.05 0.04 0.04
0.02 0.02 0.02 0.02 0.02 0.01 0.01 0.01 0.01 0.01 0.01 0.01 0.01 0.02 0.02 0.02 0.03 0.06 0.07 0.09 0.12 0.14 0.16 0.18 0.15 0.11 0.09 0.08 0.11 0.10 0.11 0.13 0.13 0.09 0.08 0.05 0.04 0.02 0.03 0.04 0.04 0.04 0.03
0.03 0.03 0.02 0.01 0.01 0.00 0.00 0.00 0.00 0.00 0.00 0.00 0.01 0.01 0.01 0.02 0.04 0.09 0.11 0.14 0.18 0.20 0.20 0.20 0.17 0.13 0.09 0.08 0.10 0.12 0.15 0.14 0.10 0.07 0.06 0.06 0.07 0.08 0.09 0.10 0.09 0.07 0.03
0.02 0.01 0.00 0.00 0.00 0.00 0.00 0.00 0.00 0.00 0.00 0.01 0.02 0.02 0.01 0.01 0.03 0.06 0.09 0.13 0.19 0.23 0.22 0.22 0.19 0.16 0.11 0.12 0.16 0.20 0.25 0.22 0.16 0.09 0.11 0.09 0.08 0.09 0.12 0.15 0.17 0.12 0.07
0.00 0.00 0.00 0.00 0.00 0.00 0.00 0.00 0.00 0.00 0.01 0.02 0.03 0.04 0.03 0.02 0.04 0.07 0.07 0.08 0.09 0.10 0.17 0.24 0.25 0.20 0.19 0.22 0.32 0.36 0.32 0.30 0.25 0.20 0.25 0.21 0.13 0.14 0.15 0.21 0.29 0.25 0.18
0.00 0.00 0.01 0.00 0.01 0.01 0.00 0.00 0.00 0.00 0.01 0.02 0.03 0.04 0.05 0.05 0.06 0.07 0.06 0.05 0.04 0.07 0.13 0.21 0.28 0.30 0.32 0.35 0.43 0.46 0.43 0.38 0.29 0.24 0.30 0.30 0.17 0.18 0.21 0.31 0.44 0.44 0.34
0.00 0.01 0.00 0.01 0.01 0.02 0.00 0.00 0.00 0.01 0.01 0.01 0.02 0.02 0.04 0.06 0.07 0.09 0.07 0.07 0.07 0.08 0.15 0.30 0.41 0.47 0.49 0.51 0.51 0.49 0.47 0.42 0.35 0.26 0.28 0.34 0.27 0.22 0.27 0.42 0.50 0.60 0.52
0.01 0.00 0.00 0.01 0.02 0.04 0.01 0.00 0.01 0.01 0.02 0.01 0.01 0.02 0.04 0.07 0.09 0.09 0.07 0.09 0.13 0.15 0.27 0.46 0.55 0.57 0.52 0.51 0.51 0.49 0.45 0.43 0.40 0.38 0.32 0.34 0.34 0.28 0.34 0.50 0.57 0.52 0.46

GEFSMA_prec_meanprecacc_042.txt.gz
Total_Precipitation_Accumulation
0.13 0.15 0.11 0.09 0.06 0.06 0.05 0.03 0.01 0.02 0.04 0.03 0.00 0.00 0.00 0.00 0.00 0.00 0.00 0.01 0.02 0.02 0.03 0.04 0.06 0.06 0.07 0.09 0.09 0.08 0.07 0.06 0.06 0.06 0.04 0.03 0.02 0.02 0.02 0.03 0.03 0.03 0.04
0.16 0.15 0.12 0.11 0.07 0.05 0.04 0.03 0.01 0.01 0.02 0.02 0.00 0.00 0.00 0.00 0.01 0.01 0.01 0.02 0.03 0.04 0.07 0.08 0.09 0.09 0.09 0.12 0.13 0.12 0.12 0.12 0.12 0.12 0.11 0.09 0.08 0.07 0.06 0.06 0.06 0.06 0.05
0.12 0.12 0.14 0.13 0.10 0.07 0.06 0.04 0.03 0.02 0.02 0.02 0.02 0.02 0.02 0.01 0.02 0.03 0.03 0.03 0.04 0.06 0.07 0.09 0.10 0.11 0.10 0.12 0.15 0.15 0.16 0.16 0.16 0.15 0.15 0.15 0.15 0.14 0.14 0.14 0.13 0.12 0.10
0.11 0.15 0.18 0.18 0.16 0.15 0.14 0.13 0.11 0.10 0.11 0.10 0.10 0.09 0.07 0.06 0.06 0.07 0.06 0.07 0.08 0.08 0.09 0.09 0.10 0.10 0.09 0.09 0.11 0.13 0.14 0.15 0.17 0.18 0.18 0.20 0.22 0.22 0.21 0.21 0.21 0.19 0.17
0.17 0.24 0.28 0.29 0.29 0.27 0.27 0.24 0.22 0.20 0.19 0.18 0.13 0.12 0.09 0.08 0.09 0.09 0.10 0.11 0.10 0.09 0.06 0.07 0.07 0.07 0.06 0.07 0.07 0.08 0.09 0.11 0.14 0.17 0.17 0.20 0.25 0.28 0.26 0.26 0.26 0.26 0.23
0.36 0.41 0.41 0.43 0.42 0.38 0.36 0.30 0.26 0.22 0.18 0.16 0.12 0.08 0.07 0.07 0.08 0.07 0.07 0.06 0.05 0.04 0.03 0.03 0.03 0.03 0.04 0.04 0.03 0.03 0.04 0.05 0.08 0.11 0.12 0.15 0.22 0.25 0.24 0.22 0.22 0.24 0.25
0.65 0.63 0.60 0.58 0.53 0.49 0.45 0.39 0.32 0.26 0.22 0.18 0.14 0.09 0.06 0.04 0.03 0.02 0.02 0.02 0.02 0.01 0.01 0.01 0.00 0.00 0.00 0.01 0.01 0.01 0.02 0.03 0.05 0.08 0.10 0.13 0.17 0.20 0.20 0.20 0.20 0.21 0.22
0.94 0.89 0.85 0.80 0.73 0.67 0.58 0.48 0.40 0.33 0.25 0.19 0.14 0.10 0.07 0.03 0.02 0.01 0.01 0.00 0.00 0.00 0.00 0.00 0.00 0.00 0.00 0.00 0.00 0.00 0.01 0.01 0.02 0.06 0.11 0.19 0.22 0.23 0.23 0.23 0.22 0.23 0.23
1.20 1.10 1.00 0.92 0.83 0.74 0.65 0.55 0.45 0.34 0.24 0.16 0.11 0.08 0.06 0.03 0.01 0.00 0.00 0.00 0.00 0.00 0.00 0.00 0.00 0.00 0.00 0.00 0.00 0.01 0.01 0.01 0.02 0.03 0.09 0.16 0.21 0.23 0.23 0.23 0.24 0.26 0.28
1.14 0.99 0.94 0.90 0.80 0.67 0.53 0.40 0.30 0.22 0.15 0.09 0.06 0.03 0.02 0.02 0.02 0.02 0.00 0.00 0.00 0.00 0.00 0.00 0.00 0.00 0.00 0.00 0.02 0.03 0.02 0.02 0.02 0.03 0.04 0.07 0.10 0.14 0.19 0.25 0.29 0.31 0.32
0.89 0.80 0.75 0.68 0.55 0.41 0.27 0.18 0.13 0.09 0.06 0.03 0.02 0.02 0.02 0.02 0.02 0.02 0.01 0.00 0.00 0.00 0.00 0.00 0.00 0.00 0.00 0.01 0.04 0.06 0.05 0.03 0.02 0.03 0.04 0.07 0.09 0.11 0.15 0.20 0.25 0.28 0.31
0.52 0.44 0.35 0.28 0.21 0.14 0.08 0.05 0.04 0.03 0.02 0.02 0.02 0.01 0.01 0.01 0.01 0.01 0.02 0.01 0.01 0.00 0.00 0.00 0.00 0.00 0.00 0.01 0.02 0.03 0.04 0.04 0.04 0.03 0.04 0.04 0.05 0.06 0.09 0.14 0.20 0.25 0.30
0.25 0.20 0.14 0.09 0.06 0.04 0.03 0.02 0.02 0.01 0.01 0.01 0.01 0.01 0.01 0.01 0.01 0.01 0.02 0.02 0.02 0.01 0.00 0.00 0.00 0.00 0.00 0.00 0.01 0.01 0.04 0.05 0.04 0.03 0.02 0.02 0.02 0.03 0.05 0.07 0.11 0.16 0.24
0.11 0.08 0.05 0.03 0.03 0.02 0.01 0.01 0.01 0.01 0.01 0.01 0.01 0.01 0.01 0.00 0.01 0.01 0.02 0.02 0.03 0.01 0.00 0.00 0.00 0.00 0.00 0.00 0.00 0.01 0.04 0.05 0.04 0.04 0.03 0.02 0.02 0.02 0.03 0.04 0.05 0.07 0.10
0.05 0.03 0.02 0.02 0.01 0.01 0.01 0.00 0.00 0.00 0.01 0.01 0.01 0.01 0.01 0.01 0.01 0.01 0.02 0.03 0.07 0.08 0.04 0.01 0.00 0.00 0.00 0.00 0.01 0.02 0.05 0.05 0.05 0.05 0.04 0.03 0.03 0.03 0.03 0.03 0.04 0.04 0.05
0.03 0.02 0.02 0.01 0.01 0.01 0.00 0.01 0.01 0.00 0.00 0.01 0.01 0.01 0.02 0.02 0.02 0.03 0.04 0.05 0.07 0.12 0.10 0.03 0.01 0.00 0.01 0.01 0.02 0.04 0.05 0.05 0.06 0.06 0.06 0.06 0.05 0.05 0.05 0.05 0.05 0.06 0.06
0.01 0.01 0.01 0.00 0.00 0.00 0.00 0.00 0.01 0.01 0.01 0.01 0.02 0.02 0.04 0.04 0.05 0.05 0.05 0.05 0.06 0.09 0.11 0.05 0.02 0.02 0.05 0.07 0.08 0.10 0.10 0.11 0.10 0.14 0.14 0.13 0.11 0.09 0.09 0.09 0.10 0.09 0.09
0.01 0.00 0.00 0.00 0.01 0.01 0.01 0.01 0.01 0.02 0.03 0.03 0.03 0.04 0.04 0.05 0.06 0.06 0.05 0.05 0.05 0.08 0.11 0.10 0.06 0.06 0.08 0.11 0.12 0.13 0.08 0.07 0.10 0.15 0.14 0.12 0.11 0.10 0.09 0.09 0.08 0.08 0.07
0.01 0.01 0.01 0.01 0.01 0.01 0.01 0.01 0.02 0.02 0.02 0.03 0.03 0.03 0.03 0.04 0.04 0.04 0.06 0.06 0.07 0.09 0.14 0.18 0.14 0.12 0.10 0.09 0.13 0.11 0.11 0.16 0.12 0.12 0.10 0.08 0.07 0.06 0.05 0.05 0.05 0.05 0.04
0.03 0.03 0.03 0.02 0.02 0.01 0.01 0.01 0.01 0.01 0.01 0.01 0.02 0.02 0.02 0.03 0.04 0.07 0.08 0.10 0.13 0.16 0.18 0.21 0.17 0.13 0.11 0.09 0.15 0.15 0.13 0.15 0.14 0.10 0.08 0.06 0.05 0.03 0.03 0.05 0.05 0.04 0.03
0.04 0.03 0.02 0.01 0.01 0.00 0.00 0.00 0.00 0.00 0.00 0.01 0.01 0.01 0.02 0.02 0.05 0.09 0.11 0.15 0.19 0.23 0.22 0.23 0.20 0.15 0.11 0.12 0.15 0.17 0.18 0.16 0.12 0.09 0.08 0.07 0.10 0.11 0.12 0.13 0.11 0.08 0.04
0.02 0.01 0.00 0.00 0.00 0.00 0.00 0.00 0.00 0.00 0.00 0.01 0.02 0.03 0.02 0.02 0.04 0.06 0.09 0.14 0.21 0.25 0.25 0.26 0.22 0.19 0.15 0.17 0.22 0.25 0.29 0.26 0.18 0.11 0.15 0.11 0.10 0.13 0.16 0.20 0.21 0.14 0.08
0.01 0.01 0.01 0.00 0.01 0.01 0.00 0.00 0.00 0.00 0.01 0.03 0.04 0.05 0.04 0.03 0.06 0.08 0.08 0.08 0.09 0.12 0.20 0.29 0.31 0.26 0.25 0.28 0.38 0.40 0.36 0.35 0.29 0.23 0.30 0.25 0.17 0.19 0.19 0.24 0.30 0.25 0.18
0.02 0.02 0.01 0.01 0.02 0.01 0.00 0.00 0.00 0.01 0.02 0.03 0.04 0.05 0.07 0.07 0.08 0.08 0.06 0.05 0.06 0.09 0.17 0.26 0.34 0.35 0.37 0.39 0.47 0.50 0.47 0.42 0.32 0.27 0.37 0.36 0.21 0.21 0.23 0.36 0.47 0.45 0.35
0.01 0.01 0.01 0.01 0.03 0.03 0.01 0.00 0.00 0.01 0.01 0.02 0.02 0.03 0.05 0.08 0.08 0.09 0.08 0.08 0.08 0.11 0.18 0.31 0.43 0.49 0.51 0.53 0.54 0.52 0.52 0.47 0.38 0.29 0.33 0.38 0.29 0.24 0.29 0.46 0.55 0.63 0.53
0.02 0.01 0.01 0.02 0.04 0.05 0.02 0.00 0.01 0.01 0.02 0.01 0.01 0.03 0.05 0.08 0.09 0.09 0.07 0.10 0.16 0.17 0.29 0.48 0.59 0.62 0.58 0.57 0.55 0.53 0.51 0.50 0.46 0.42 0.35 0.37 0.36 0.30 0.35 0.52 0.61 0.57 0.52

GEFSMA_prec_meanprecacc_048.txt.gz
Total_Precipitation_Accumulation
0.14 0.17 0.14 0.11 0.08 0.08 0.08 0.05 0.03 0.04 0.08 0.07 0.03 0.02 0.02 0.02 0.02 0.02 0.02 0.03 0.04 0.05 0.06 0.07 0.07 0.08 0.08 0.11 0.11 0.09 0.09 0.08 0.09 0.08 0.06 0.05 0.04 0.03 0.03 0.04 0.04 0.05 0.05
0.16 0.16 0.13 0.12 0.08 0.08 0.09 0.11 0.08 0.04 0.04 0.04 0.02 0.02 0.02 0.03 0.04 0.04 0.03 0.04 0.05 0.07 0.10 0.11 0.12 0.10 0.10 0.13 0.14 0.14 0.15 0.15 0.16 0.16 0.15 0.14 0.11 0.10 0.09 0.08 0.08 0.08 0.06
0.12 0.12 0.14 0.15 0.12 0.11 0.10 0.09 0.09 0.07 0.05 0.05 0.06 0.06 0.04 0.04 0.04 0.04 0.04 0.04 0.06 0.07 0.08 0.11 0.12 0.12 0.12 0.14 0.17 0.17 0.19 0.20 0.19 0.19 0.20 0.21 0.20 0.18 0.18 0.18 0.17 0.15 0.13
0.12 0.17 0.20 0.20 0.18 0.17 0.18 0.18 0.17 0.15 0.14 0.13 0.13 0.13 0.10 0.09 0.08 0.09 0.07 0.08 0.08 0.08 0.09 0.10 0.10 0.10 0.09 0.10 0.12 0.15 0.16 0.17 0.19 0.21 0.22 0.25 0.26 0.26 0.24 0.24 0.24 0.22 0.20
0.22 0.28 0.32 0.32 0.31 0.29 0.29 0.27 0.26 0.24 0.23 0.21 0.16 0.15 0.12 0.10 0.11 0.10 0.11 0.11 0.11 0.09 0.07 0.07 0.07 0.07 0.07 0.07 0.08 0.09 0.10 0.12 0.16 0.18 0.19 0.22 0.27 0.29 0.27 0.27 0.28 0.28 0.26
0.42 0.46 0.45 0.47 0.44 0.40 0.38 0.32 0.29 0.25 0.21 0.19 0.15 0.11 0.09 0.08 0.09 0.08 0.07 0.06 0.05 0.04 0.03 0.03 0.03 0.03 0.04 0.04 0.03 0.03 0.04 0.06 0.08 0.12 0.12 0.16 0.22 0.25 0.24 0.23 0.23 0.25 0.26
0.71 0.67 0.63 0.60 0.55 0.51 0.47 0.41 0.34 0.29 0.25 0.20 0.15 0.11 0.07 0.04 0.03 0.02 0.02 0.02 0.02 0.01 0.01 0.01 0.00 0.00 0.00 0.01 0.01 0.01 0.02 0.03 0.05 0.08 0.10 0.13 0.17 0.20 0.20 0.20 0.20 0.21 0.23
1.01 0.94 0.88 0.82 0.74 0.68 0.60 0.50 0.42 0.35 0.27 0.20 0.15 0.11 0.07 0.04 0.02 0.01 0.01 0.01 0.00 0.00 0.00 0.00 0.00 0.00 0.00 0.00 0.00 0.00 0.01 0.01 0.02 0.06 0.11 0.19 0.22 0.23 0.23 0.23 0.22 0.23 0.23
1.28 1.17 1.05 0.96 0.86 0.76 0.67 0.57 0.46 0.36 0.26 0.17 0.12 0.09 0.07 0.04 0.02 0.01 0.00 0.00 0.00 0.00 0.00 0.00 0.00 0.00 0.00 0.00 0.00 0.01 0.01 0.01 0.02 0.03 0.09 0.16 0.22 0.23 0.23 0.23 0.24 0.26 0.28
1.27 1.09 1.02 0.96 0.84 0.70 0.55 0.42 0.31 0.22 0.15 0.10 0.06 0.04 0.03 0.02 0.03 0.02 0.01 0.00 0.00 0.00 0.00 0.00 0.00 0.00 0.00 0.00 0.02 0.03 0.02 0.02 0.02 0.03 0.04 0.08 0.10 0.14 0.19 0.25 0.29 0.31 0.32
1.02 0.92 0.84 0.73 0.58 0.43 0.28 0.19 0.13 0.09 0.06 0.04 0.03 0.02 0.02 0.02 0.02 0.03 0.02 0.01 0.00 0.00 0.00 0.00 0.00 0.00 0.00 0.01 0.04 0.06 0.05 0.03 0.03 0.03 0.04 0.07 0.09 0.11 0.15 0.20 0.25 0.29 0.31
0.66 0.54 0.41 0.31 0.23 0.15 0.09 0.06 0.04 0.03 0.03 0.02 0.02 0.01 0.01 0.01 0.01 0.02 0.02 0.01 0.01 0.00 0.00 0.00 0.00 0.00 0.00 0.01 0.02 0.03 0.04 0.04 0.04 0.03 0.04 0.04 0.05 0.06 0.09 0.14 0.20 0.25 0.31
0.38 0.28 0.19 0.13 0.09 0.05 0.03 0.02 0.02 0.01 0.01 0.01 0.01 0.01 0.01 0.01 0.01 0.02 0.02 0.02 0.03 0.01 0.00 0.00 0.00 0.00 0.00 0.00 0.01 0.01 0.04 0.05 0.04 0.03 0.02 0.02 0.02 0.03 0.05 0.07 0.11 0.17 0.25
0.22 0.15 0.10 0.07 0.05 0.03 0.02 0.02 0.01 0.01 0.01 0.01 0.01 0.01 0.01 0.01 0.01 0.01 0.02 0.02 0.03 0.01 0.00 0.00 0.00 0.00 0.00 0.00 0.00 0.01 0.04 0.05 0.04 0.04 0.03 0.02 0.02 0.02 0.03 0.04 0.06 0.08 0.11
0.10 0.07 0.05 0.03 0.03 0.02 0.02 0.01 0.01 0.00 0.01 0.01 0.01 0.01 0.01 0.01 0.01 0.01 0.02 0.03 0.07 0.08 0.04 0.01 0.00 0.00 0.00 0.00 0.01 0.02 0.05 0.05 0.05 0.05 0.05 0.03 0.03 0.03 0.03 0.04 0.04 0.05 0.05
0.04 0.04 0.03 0.02 0.01 0.01 0.01 0.01 0.01 0.00 0.00 0.01 0.01 0.01 0.02 0.02 0.02 0.03 0.04 0.05 0.07 0.12 0.10 0.03 0.01 0.00 0.01 0.01 0.02 0.04 0.05 0.05 0.06 0.06 0.06 0.06 0.05 0.05 0.05 0.06 0.06 0.06 0.06
0.02 0.01 0.01 0.00 0.00 0.00 0.00 0.00 0.01 0.01 0.01 0.01 0.02 0.02 0.04 0.04 0.05 0.05 0.05 0.05 0.06 0.09 0.11 0.05 0.02 0.02 0.05 0.07 0.08 0.10 0.10 0.11 0.11 0.14 0.14 0.13 0.11 0.09 0.09 0.10 0.10 0.10 0.10
0.01 0.01 0.00 0.00 0.01 0.01 0.01 0.01 0.01 0.02 0.03 0.03 0.03 0.04 0.04 0.05 0.06 0.06 0.05 0.05 0.05 0.08 0.11 0.10 0.06 0.06 0.08 0.11 0.12 0.13 0.08 0.07 0.10 0.15 0.14 0.12 0.11 0.10 0.10 0.09 0.09 0.08 0.07
0.01 0.02 0.02 0.02 0.01 0.01 0.01 0.02 0.02 0.02 0.02 0.03 0.03 0.03 0.03 0.04 0.04 0.04 0.06 0.06 0.07 0.09 0.14 0.18 0.14 0.12 0.10 0.09 0.13 0.11 0.11 0.16 0.12 0.12 0.11 0.08 0.07 0.06 0.05 0.05 0.05 0.05 0.04
0.03 0.03 0.03 0.02 0.02 0.01 0.01 0.01 0.01 0.01 0.01 0.01 0.02 0.02 0.02 0.03 0.04 0.07 0.08 0.10 0.13 0.16 0.18 0.21 0.17 0.13 0.11 0.09 0.15 0.15 0.14 0.15 0.14 0.10 0.08 0.06 0.05 0.03 0.04 0.05 0.05 0.05 0.03
0.04 0.03 0.02 0.01 0.01 0.00 0.00 0.00 0.00 0.00 0.00 0.01 0.01 0.02 0.02 0.03 0.05 0.09 0.11 0.15 0.19 0.23 0.22 0.23 0.20 0.15 0.11 0.12 0.15 0.17 0.19 0.16 0.12 0.09 0.09 0.08 0.10 0.11 0.13 0.13 0.12 0.09 0.05
0.02 0.01 0.00 0.00 0.00 0.00 0.00 0.00 0.00 0.00 0.00 0.01 0.02 0.03 0.02 0.02 0.04 0.06 0.10 0.14 0.21 0.25 0.26 0.26 0.23 0.20 0.15 0.18 0.23 0.26 0.30 0.27 0.19 0.11 0.15 0.11 0.11 0.13 0.16 0.20 0.21 0.15 0.08
0.01 0.01 0.01 0.00 0.01 0.01 0.00 0.00 0.00 0.00 0.01 0.03 0.05 0.05 0.04 0.03 0.06 0.08 0.08 0.09 0.09 0.12 0.21 0.31 0.32 0.27 0.26 0.29 0.40 0.41 0.37 0.36 0.30 0.23 0.31 0.26 0.17 0.19 0.19 0.24 0.31 0.26 0.19
0.02 0.02 0.02 0.01 0.02 0.01 0.00 0.00 0.00 0.01 0.02 0.03 0.04 0.05 0.07 0.07 0.08 0.08 0.06 0.05 0.06 0.09 0.17 0.27 0.35 0.36 0.37 0.40 0.48 0.52 0.48 0.43 0.32 0.28 0.38 0.37 0.21 0.21 0.23 0.36 0.47 0.46 0.35
0.03 0.02 0.01 0.01 0.03 0.03 0.01 0.00 0.00 0.01 0.01 0.02 0.02 0.03 0.05 0.08 0.08 0.09 0.08 0.08 0.08 0.11 0.18 0.32 0.43 0.49 0.51 0.53 0.54 0.54 0.53 0.49 0.40 0.30 0.34 0.39 0.30 0.24 0.29 0.46 0.55 0.63 0.54
0.03 0.03 0.02 0.02 0.04 0.06 0.02 0.00 0.01 0.01 0.02 0.01 0.01 0.03 0.05 0.08 0.09 0.09 0.07 0.10 0.16 0.18 0.29 0.48 0.59 0.63 0.58 0.57 0.56 0.54 0.53 0.51 0.49 0.45 0.37 0.39 0.38 0.31 0.37 0.52 0.61 0.57 0.52

GEFSMA_prec_meanprecacc_054.txt.gz
Total_Precipitation_Accumulation
0.14 0.17 0.14 0.12 0.09 0.09 0.09 0.06 0.03 0.05 0.09 0.08 0.03 0.02 0.02 0.03 0.02 0.02 0.02 0.04 0.05 0.06 0.08 0.09 0.09 0.09 0.10 0.12 0.12 0.11 0.10 0.09 0.10 0.10 0.07 0.06 0.05 0.04 0.04 0.05 0.06 0.06 0.06
0.16 0.16 0.14 0.13 0.11 0.10 0.11 0.12 0.09 0.05 0.05 0.05 0.03 0.02 0.03 0.05 0.05 0.05 0.04 0.05 0.07 0.09 0.13 0.15 0.14 0.13 0.13 0.15 0.16 0.15 0.16 0.17 0.18 0.18 0.17 0.15 0.12 0.11 0.11 0.10 0.10 0.10 0.08
0.13 0.14 0.17 0.19 0.16 0.15 0.13 0.13 0.12 0.09 0.06 0.05 0.07 0.08 0.06 0.06 0.06 0.06 0.05 0.06 0.08 0.10 0.11 0.13 0.14 0.15 0.15 0.17 0.19 0.20 0.22 0.21 0.21 0.21 0.21 0.22 0.21 0.19 0.18 0.18 0.17 0.17 0.14
0.17 0.22 0.25 0.26 0.26 0.23 0.23 0.22 0.20 0.17 0.16 0.15 0.14 0.15 0.12 0.11 0.11 0.11 0.09 0.10 0.10 0.11 0.11 0.11 0.12 0.12 0.12 0.12 0.14 0.17 0.18 0.18 0.21 0.23 0.25 0.26 0.27 0.26 0.25 0.25 0.25 0.23 0.21
0.29 0.35 0.38 0.40 0.40 0.38 0.37 0.33 0.30 0.28 0.26 0.23 0.18 0.17 0.14 0.12 0.14 0.13 0.14 0.14 0.13 0.11 0.08 0.08 0.09 0.09 0.08 0.09 0.09 0.10 0.11 0.13 0.17 0.20 0.20 0.23 0.28 0.30 0.28 0.27 0.29 0.29 0.27
0.55 0.58 0.59 0.60 0.56 0.52 0.47 0.40 0.35 0.30 0.25 0.22 0.17 0.13 0.11 0.10 0.11 0.10 0.09 0.08 0.06 0.05 0.04 0.03 0.04 0.04 0.04 0.04 0.04 0.04 0.05 0.06 0.09 0.12 0.13 0.16 0.22 0.25 0.24 0.23 0.23 0.25 0.26
0.92 0.89 0.84 0.80 0.72 0.66 0.58 0.50 0.42 0.35 0.30 0.25 0.20 0.14 0.10 0.07 0.06 0.04 0.04 0.03 0.02 0.02 0.01 0.01 0.01 0.01 0.01 0.01 0.01 0.01 0.02 0.04 0.05 0.08 0.11 0.14 0.17 0.20 0.20 0.20 0.21 0.21 0.23
1.33 1.26 1.15 1.08 0.96 0.86 0.74 0.61 0.52 0.44 0.34 0.26 0.20 0.15 0.10 0.06 0.04 0.03 0.02 0.02 0.02 0.01 0.01 0.01 0.01 0.00 0.00 0.00 0.00 0.01 0.02 0.02 0.03 0.06 0.12 0.19 0.22 0.23 0.23 0.23 0.22 0.23 0.23
1.71 1.56 1.40 1.25 1.10 0.95 0.83 0.71 0.58 0.45 0.33 0.24 0.17 0.13 0.10 0.07 0.04 0.03 0.02 0.01 0.01 0.01 0.00 0.00 0.00 0.00 0.00 0.00 0.01 0.01 0.01 0.01 0.02 0.04 0.09 0.17 0.22 0.23 0.23 0.23 0.24 0.27 0.28
1.67 1.46 1.34 1.25 1.09 0.90 0.70 0.55 0.42 0.30 0.22 0.16 0.10 0.07 0.06 0.05 0.04 0.03 0.01 0.01 0.00 0.00 0.00 0.00 0.00 0.00 0.00 0.00 0.02 0.03 0.02 0.02 0.02 0.03 0.05 0.08 0.11 0.15 0.20 0.26 0.30 0.32 0.33
1.35 1.20 1.09 0.96 0.79 0.60 0.42 0.30 0.22 0.17 0.14 0.12 0.09 0.06 0.05 0.05 0.04 0.05 0.03 0.01 0.00 0.00 0.00 0.00 0.00 0.00 0.00 0.01 0.04 0.06 0.05 0.03 0.03 0.03 0.05 0.07 0.09 0.11 0.15 0.20 0.25 0.29 0.32
0.93 0.78 0.62 0.48 0.37 0.28 0.21 0.16 0.14 0.13 0.11 0.08 0.05 0.04 0.04 0.03 0.03 0.03 0.03 0.02 0.01 0.01 0.01 0.01 0.01 0.01 0.00 0.01 0.02 0.03 0.04 0.04 0.04 0.03 0.04 0.04 0.05 0.06 0.09 0.14 0.20 0.26 0.31
0.59 0.47 0.35 0.25 0.18 0.14 0.11 0.09 0.07 0.05 0.04 0.04 0.03 0.03 0.03 0.03 0.03 0.02 0.02 0.03 0.03 0.01 0.01 0.00 0.00 0.00 0.00 0.00 0.01 0.01 0.04 0.05 0.04 0.03 0.02 0.02 0.02 0.03 0.05 0.07 0.11 0.17 0.25
0.40 0.28 0.19 0.13 0.09 0.07 0.05 0.04 0.03 0.04 0.04 0.04 0.04 0.03 0.03 0.02 0.02 0.02 0.02 0.03 0.03 0.01 0.00 0.00 0.00 0.00 0.00 0.00 0.00 0.01 0.04 0.05 0.04 0.04 0.03 0.02 0.02 0.02 0.03 0.04 0.06 0.08 0.12
0.19 0.13 0.08 0.05 0.04 0.04 0.04 0.04 0.04 0.03 0.03 0.03 0.02 0.02 0.02 0.01 0.01 0.01 0.02 0.03 0.07 0.08 0.04 0.01 0.00 0.00 0.00 0.00 0.01 0.02 0.05 0.05 0.05 0.05 0.05 0.03 0.03 0.03 0.03 0.04 0.05 0.06 0.06
0.10 0.07 0.06 0.04 0.03 0.02 0.02 0.01 0.01 0.01 0.01 0.01 0.01 0.01 0.02 0.02 0.02 0.03 0.04 0.05 0.07 0.12 0.10 0.03 0.01 0.00 0.01 0.01 0.02 0.04 0.05 0.05 0.06 0.06 0.06 0.06 0.05 0.05 0.05 0.06 0.07 0.07 0.08
0.06 0.04 0.02 0.02 0.01 0.01 0.01 0.01 0.01 0.01 0.01 0.02 0.02 0.03 0.04 0.04 0.05 0.05 0.05 0.05 0.06 0.09 0.11 0.05 0.02 0.02 0.05 0.07 0.08 0.10 0.10 0.11 0.11 0.14 0.14 0.13 0.11 0.09 0.09 0.10 0.11 0.11 0.11
0.03 0.02 0.02 0.01 0.01 0.01 0.01 0.01 0.01 0.02 0.03 0.03 0.03 0.04 0.04 0.05 0.06 0.06 0.05 0.05 0.05 0.08 0.11 0.10 0.06 0.06 0.08 0.11 0.12 0.13 0.08 0.07 0.10 0.15 0.14 0.12 0.11 0.10 0.10 0.10 0.09 0.09 0.08
0.04 0.04 0.03 0.03 0.02 0.02 0.02 0.02 0.02 0.03 0.03 0.03 0.03 0.04 0.03 0.04 0.04 0.04 0.06 0.06 0.07 0.09 0.14 0.18 0.14 0.12 0.10 0.09 0.13 0.11 0.11 0.16 0.12 0.12 0.11 0.08 0.07 0.06 0.06 0.05 0.05 0.05 0.04
0.05 0.05 0.04 0.04 0.03 0.02 0.01 0.01 0.01 0.01 0.01 0.01 0.02 0.02 0.02 0.03 0.04 0.07 0.08 0.10 0.13 0.16 0.18 0.21 0.17 0.13 0.11 0.09 0.15 0.15 0.14 0.15 0.14 0.10 0.08 0.06 0.05 0.04 0.04 0.05 0.05 0.05 0.03
0.06 0.04 0.03 0.02 0.01 0.01 0.00 0.00 0.00 0.00 0.00 0.01 0.01 0.02 0.02 0.03 0.05 0.09 0.12 0.15 0.19 0.23 0.22 0.23 0.20 0.15 0.11 0.12 0.15 0.17 0.19 0.16 0.12 0.09 0.09 0.08 0.10 0.11 0.13 0.13 0.12 0.09 0.05
0.03 0.01 0.01 0.00 0.00 0.00 0.00 0.00 0.00 0.00 0.00 0.01 0.02 0.03 0.02 0.02 0.04 0.06 0.10 0.14 0.21 0.25 0.26 0.26 0.23 0.20 0.15 0.18 0.23 0.27 0.30 0.28 0.20 0.11 0.15 0.11 0.11 0.13 0.16 0.20 0.21 0.15 0.08
0.02 0.01 0.01 0.01 0.01 0.01 0.00 0.00 0.00 0.00 0.01 0.03 0.05 0.05 0.04 0.03 0.06 0.08 0.08 0.09 0.09 0.12 0.21 0.31 0.32 0.27 0.27 0.29 0.40 0.42 0.38 0.37 0.31 0.24 0.31 0.26 0.17 0.19 0.19 0.24 0.31 0.26 0.19
0.03 0.03 0.02 0.01 0.02 0.01 0.00 0.00 0.00 0.01 0.02 0.03 0.04 0.05 0.07 0.07 0.08 0.08 0.06 0.05 0.06 0.09 0.17 0.27 0.35 0.37 0.38 0.41 0.49 0.53 0.49 0.44 0.33 0.28 0.38 0.37 0.22 0.22 0.23 0.36 0.47 0.46 0.36
0.03 0.03 0.03 0.03 0.03 0.04 0.01 0.00 0.00 0.01 0.01 0.02 0.02 0.03 0.05 0.08 0.08 0.09 0.08 0.08 0.08 0.11 0.18 0.32 0.43 0.49 0.52 0.54 0.55 0.54 0.54 0.50 0.41 0.30 0.34 0.39 0.30 0.24 0.29 0.46 0.55 0.63 0.54
0.04 0.04 0.04 0.04 0.05 0.06 0.02 0.00 0.01 0.01 0.02 0.01 0.01 0.03 0.05 0.08 0.10 0.09 0.07 0.11 0.16 0.18 0.29 0.48 0.59 0.63 0.59 0.58 0.57 0.55 0.53 0.52 0.50 0.46 0.37 0.40 0.39 0.33 0.38 0.53 0.61 0.58 0.52

GEFSMA_prec_meanprecacc_060.txt.gz
Total_Precipitation_Accumulation
0.14 0.17 0.14 0.12 0.10 0.12 0.13 0.09 0.05 0.06 0.10 0.08 0.03 0.02 0.02 0.03 0.03 0.03 0.04 0.05 0.07 0.09 0.10 0.12 0.13 0.13 0.13 0.15 0.15 0.13 0.12 0.10 0.11 0.11 0.09 0.07 0.06 0.05 0.06 0.07 0.08 0.08 0.08
0.17 0.16 0.14 0.15 0.14 0.15 0.16 0.16 0.13 0.07 0.06 0.06 0.03 0.02 0.03 0.05 0.05 0.05 0.06 0.07 0.09 0.11 0.17 0.19 0.18 0.16 0.16 0.18 0.20 0.19 0.18 0.18 0.19 0.19 0.18 0.16 0.13 0.12 0.12 0.12 0.12 0.11 0.10
0.14 0.16 0.19 0.22 0.20 0.19 0.17 0.17 0.16 0.11 0.08 0.07 0.08 0.08 0.07 0.06 0.07 0.07 0.06 0.07 0.10 0.13 0.14 0.17 0.18 0.19 0.18 0.22 0.23 0.23 0.24 0.23 0.23 0.22 0.23 0.24 0.23 0.20 0.20 0.20 0.19 0.17 0.15
0.19 0.25 0.29 0.31 0.31 0.29 0.28 0.27 0.24 0.21 0.19 0.17 0.17 0.17 0.13 0.12 0.12 0.12 0.11 0.11 0.12 0.13 0.14 0.14 0.14 0.15 0.15 0.16 0.17 0.20 0.20 0.21 0.24 0.26 0.28 0.29 0.29 0.29 0.27 0.27 0.26 0.24 0.22
0.33 0.41 0.46 0.48 0.49 0.48 0.47 0.42 0.38 0.34 0.32 0.30 0.23 0.21 0.16 0.14 0.15 0.15 0.16 0.16 0.16 0.14 0.11 0.10 0.11 0.11 0.10 0.11 0.11 0.12 0.13 0.15 0.21 0.23 0.23 0.26 0.30 0.32 0.29 0.28 0.29 0.29 0.27
0.67 0.73 0.73 0.75 0.73 0.69 0.63 0.53 0.48 0.42 0.35 0.31 0.24 0.18 0.15 0.14 0.14 0.13 0.12 0.10 0.08 0.07 0.05 0.05 0.05 0.05 0.06 0.05 0.05 0.06 0.07 0.08 0.11 0.14 0.15 0.18 0.24 0.26 0.25 0.23 0.23 0.25 0.26
1.15 1.13 1.06 1.03 0.96 0.92 0.85 0.77 0.63 0.52 0.44 0.36 0.29 0.22 0.15 0.12 0.10 0.08 0.07 0.05 0.05 0.04 0.03 0.03 0.03 0.03 0.02 0.03 0.02 0.02 0.04 0.05 0.06 0.10 0.13 0.15 0.19 0.21 0.21 0.20 0.21 0.21 0.23
1.64 1.57 1.46 1.40 1.29 1.17 1.02 0.88 0.76 0.64 0.52 0.41 0.34 0.29 0.22 0.14 0.09 0.07 0.06 0.05 0.04 0.03 0.02 0.02 0.02 0.02 0.02 0.01 0.01 0.02 0.02 0.03 0.04 0.08 0.14 0.21 0.24 0.24 0.24 0.23 0.22 0.23 0.23
2.07 1.94 1.77 1.62 1.48 1.30 1.16 0.99 0.81 0.67 0.53 0.41 0.34 0.29 0.25 0.19 0.11 0.08 0.07 0.05 0.04 0.03 0.02 0.02 0.02 0.02 0.01 0.01 0.01 0.02 0.02 0.02 0.03 0.05 0.10 0.18 0.23 0.24 0.24 0.25 0.25 0.28 0.29
2.07 1.87 1.77 1.72 1.55 1.28 1.01 0.79 0.62 0.49 0.39 0.31 0.24 0.19 0.17 0.15 0.14 0.11 0.07 0.05 0.04 0.04 0.03 0.03 0.02 0.02 0.01 0.01 0.03 0.03 0.03 0.02 0.03 0.03 0.05 0.09 0.12 0.16 0.21 0.28 0.32 0.34 0.35
1.86 1.64 1.50 1.35 1.11 0.83 0.59 0.43 0.33 0.27 0.23 0.20 0.18 0.16 0.15 0.12 0.11 0.11 0.09 0.05 0.04 0.03 0.03 0.03 0.03 0.02 0.01 0.01 0.04 0.07 0.05 0.04 0.03 0.03 0.05 0.08 0.10 0.12 0.17 0.22 0.28 0.32 0.34
1.37 1.10 0.88 0.67 0.52 0.40 0.29 0.24 0.20 0.18 0.16 0.14 0.12 0.10 0.08 0.08 0.07 0.08 0.08 0.06 0.04 0.03 0.02 0.02 0.02 0.02 0.01 0.01 0.03 0.04 0.05 0.05 0.05 0.04 0.04 0.04 0.05 0.07 0.09 0.15 0.21 0.27 0.33
0.87 0.69 0.53 0.41 0.31 0.24 0.18 0.14 0.11 0.09 0.07 0.06 0.06 0.05 0.05 0.04 0.04 0.04 0.05 0.05 0.05 0.03 0.02 0.01 0.01 0.01 0.01 0.01 0.01 0.02 0.04 0.05 0.04 0.03 0.02 0.02 0.02 0.03 0.05 0.08 0.12 0.18 0.26
0.63 0.47 0.34 0.25 0.20 0.16 0.13 0.10 0.08 0.06 0.06 0.05 0.05 0.05 0.04 0.03 0.03 0.03 0.03 0.04 0.04 0.02 0.01 0.01 0.00 0.00 0.00 0.00 0.01 0.01 0.04 0.05 0.04 0.04 0.03 0.02 0.02 0.02 0.03 0.04 0.06 0.08 0.12
0.33 0.26 0.21 0.17 0.13 0.11 0.10 0.09 0.08 0.06 0.05 0.04 0.03 0.03 0.03 0.02 0.02 0.02 0.02 0.04 0.08 0.08 0.04 0.01 0.00 0.00 0.00 0.00 0.01 0.03 0.05 0.05 0.05 0.05 0.05 0.03 0.03 0.03 0.03 0.04 0.05 0.06 0.07
0.24 0.20 0.17 0.13 0.10 0.07 0.05 0.04 0.04 0.03 0.02 0.02 0.02 0.02 0.02 0.02 0.03 0.03 0.04 0.05 0.07 0.12 0.10 0.03 0.01 0.00 0.01 0.01 0.02 0.04 0.05 0.05 0.06 0.06 0.06 0.06 0.05 0.05 0.05 0.06 0.07 0.08 0.08
0.16 0.13 0.11 0.09 0.08 0.06 0.05 0.04 0.03 0.03 0.02 0.03 0.03 0.03 0.04 0.05 0.06 0.05 0.05 0.06 0.06 0.09 0.11 0.05 0.02 0.02 0.05 0.07 0.08 0.10 0.10 0.11 0.11 0.14 0.14 0.13 0.11 0.10 0.09 0.10 0.11 0.12 0.12
0.09 0.08 0.07 0.07 0.07 0.07 0.06 0.05 0.05 0.05 0.05 0.05 0.05 0.05 0.05 0.06 0.07 0.06 0.06 0.05 0.06 0.08 0.11 0.10 0.07 0.06 0.08 0.11 0.13 0.14 0.08 0.07 0.10 0.15 0.14 0.12 0.11 0.10 0.10 0.10 0.10 0.09 0.08
0.10 0.10 0.09 0.09 0.08 0.07 0.06 0.06 0.06 0.06 0.05 0.05 0.04 0.04 0.04 0.04 0.05 0.05 0.07 0.07 0.08 0.09 0.15 0.19 0.15 0.13 0.11 0.10 0.14 0.12 0.12 0.17 0.13 0.12 0.11 0.08 0.07 0.06 0.06 0.05 0.05 0.05 0.04
0.10 0.09 0.09 0.08 0.07 0.06 0.04 0.04 0.03 0.03 0.03 0.02 0.02 0.02 0.02 0.03 0.05 0.08 0.09 0.11 0.14 0.17 0.20 0.22 0.18 0.14 0.12 0.11 0.17 0.17 0.15 0.17 0.16 0.10 0.09 0.06 0.05 0.04 0.04 0.05 0.05 0.05 0.03
0.08 0.06 0.05 0.03 0.02 0.02 0.01 0.01 0.01 0.01 0.01 0.01 0.01 0.02 0.02 0.03 0.05 0.09 0.12 0.16 0.21 0.25 0.24 0.24 0.21 0.16 0.12 0.14 0.18 0.20 0.22 0.18 0.13 0.10 0.11 0.09 0.11 0.12 0.15 0.15 0.13 0.10 0.05
0.03 0.02 0.01 0.01 0.01 0.00 0.00 0.00 0.00 0.00 0.01 0.02 0.02 0.03 0.02 0.02 0.04 0.07 0.10 0.15 0.22 0.26 0.27 0.28 0.25 0.22 0.17 0.21 0.27 0.30 0.33 0.31 0.22 0.14 0.18 0.13 0.12 0.15 0.19 0.23 0.22 0.15 0.08
0.02 0.02 0.01 0.01 0.01 0.01 0.00 0.00 0.00 0.00 0.01 0.03 0.05 0.05 0.04 0.03 0.06 0.09 0.09 0.09 0.11 0.13 0.22 0.32 0.35 0.31 0.31 0.34 0.45 0.45 0.42 0.41 0.34 0.27 0.35 0.28 0.19 0.22 0.21 0.25 0.31 0.26 0.19
0.03 0.03 0.02 0.02 0.03 0.02 0.00 0.00 0.00 0.01 0.02 0.03 0.04 0.06 0.07 0.08 0.09 0.08 0.07 0.06 0.08 0.12 0.20 0.29 0.39 0.41 0.41 0.44 0.52 0.55 0.51 0.46 0.35 0.32 0.43 0.41 0.24 0.24 0.25 0.39 0.49 0.46 0.36
0.04 0.03 0.03 0.03 0.04 0.04 0.01 0.00 0.00 0.01 0.02 0.02 0.03 0.04 0.05 0.09 0.09 0.09 0.08 0.10 0.11 0.16 0.21 0.33 0.45 0.50 0.52 0.55 0.56 0.55 0.56 0.54 0.43 0.32 0.38 0.42 0.33 0.27 0.30 0.49 0.57 0.64 0.54
0.05 0.04 0.04 0.05 0.06 0.07 0.02 0.00 0.01 0.01 0.02 0.02 0.02 0.04 0.06 0.08 0.10 0.10 0.08 0.13 0.20 0.23 0.34 0.53 0.64 0.66 0.62 0.60 0.58 0.56 0.57 0.56 0.53 0.48 0.40 0.43 0.43 0.37 0.41 0.54 0.64 0.61 0.56

GEFSMA_prec_meanprecacc_066.txt.gz
Total_Precipitation_Accumulation
0.15 0.18 0.15 0.13 0.11 0.14 0.16 0.11 0.07 0.09 0.13 0.09 0.03 0.03 0.02 0.03 0.03 0.06 0.10 0.07 0.08 0.09 0.11 0.13 0.15 0.15 0.15 0.17 0.17 0.15 0.13 0.12 0.12 0.12 0.10 0.08 0.07 0.07 0.07 0.08 0.10 0.10 0.10
0.18 0.18 0.16 0.17 0.17 0.17 0.19 0.20 0.16 0.12 0.12 0.11 0.05 0.03 0.03 0.05 0.06 0.08 0.11 0.10 0.11 0.13 0.19 0.22 0.22 0.19 0.19 0.22 0.23 0.22 0.21 0.20 0.20 0.21 0.19 0.17 0.14 0.13 0.13 0.12 0.13 0.12 0.11
0.17 0.18 0.23 0.27 0.26 0.24 0.23 0.22 0.21 0.17 0.14 0.13 0.11 0.09 0.07 0.06 0.07 0.09 0.12 0.16 0.16 0.18 0.19 0.21 0.22 0.23 0.22 0.25 0.27 0.26 0.27 0.26 0.25 0.24 0.24 0.25 0.24 0.21 0.21 0.21 0.20 0.19 0.16
0.22 0.29 0.36 0.38 0.38 0.36 0.37 0.38 0.34 0.32 0.29 0.26 0.24 0.23 0.18 0.17 0.15 0.15 0.15 0.19 0.22 0.24 0.22 0.19 0.19 0.20 0.20 0.19 0.20 0.22 0.23 0.24 0.26 0.28 0.30 0.31 0.30 0.30 0.28 0.28 0.28 0.25 0.23
0.38 0.49 0.55 0.58 0.59 0.60 0.59 0.52 0.50 0.46 0.45 0.41 0.32 0.32 0.25 0.23 0.24 0.21 0.20 0.21 0.23 0.25 0.25 0.23 0.20 0.18 0.15 0.15 0.15 0.15 0.16 0.18 0.24 0.26 0.26 0.28 0.32 0.34 0.31 0.30 0.31 0.31 0.28
0.74 0.83 0.85 0.87 0.85 0.83 0.76 0.68 0.64 0.56 0.49 0.45 0.35 0.30 0.27 0.27 0.29 0.25 0.21 0.17 0.16 0.17 0.17 0.17 0.17 0.17 0.13 0.11 0.09 0.09 0.10 0.11 0.14 0.17 0.19 0.22 0.28 0.30 0.27 0.26 0.25 0.27 0.28
1.26 1.27 1.21 1.18 1.11 1.07 1.02 0.96 0.82 0.72 0.63 0.54 0.49 0.43 0.32 0.26 0.23 0.20 0.17 0.13 0.13 0.14 0.15 0.13 0.10 0.10 0.10 0.09 0.07 0.06 0.07 0.09 0.11 0.15 0.17 0.20 0.24 0.25 0.25 0.23 0.23 0.24 0.25
1.78 1.73 1.66 1.58 1.45 1.32 1.17 1.04 0.93 0.84 0.71 0.58 0.54 0.51 0.41 0.29 0.20 0.15 0.14 0.13 0.12 0.11 0.10 0.09 0.09 0.08 0.07 0.06 0.06 0.05 0.05 0.06 0.07 0.12 0.18 0.25 0.27 0.27 0.27 0.27 0.25 0.26 0.25
2.24 2.11 1.95 1.80 1.66 1.51 1.38 1.19 1.01 0.88 0.73 0.59 0.51 0.47 0.45 0.39 0.28 0.19 0.15 0.13 0.11 0.09 0.08 0.07 0.06 0.06 0.05 0.05 0.05 0.05 0.05 0.04 0.05 0.08 0.14 0.22 0.27 0.28 0.28 0.28 0.29 0.31 0.32
2.26 2.06 1.96 1.92 1.75 1.49 1.22 0.99 0.79 0.65 0.56 0.47 0.40 0.34 0.31 0.28 0.28 0.23 0.17 0.12 0.10 0.09 0.07 0.06 0.05 0.04 0.04 0.04 0.06 0.07 0.07 0.06 0.06 0.07 0.09 0.13 0.17 0.21 0.26 0.32 0.36 0.38 0.40
2.06 1.86 1.72 1.56 1.32 1.04 0.78 0.59 0.46 0.38 0.34 0.32 0.29 0.27 0.25 0.23 0.21 0.22 0.18 0.12 0.10 0.08 0.08 0.07 0.06 0.05 0.04 0.04 0.07 0.10 0.10 0.08 0.07 0.08 0.09 0.12 0.14 0.17 0.21 0.26 0.32 0.36 0.39
1.68 1.37 1.10 0.85 0.68 0.56 0.44 0.37 0.31 0.27 0.24 0.21 0.19 0.17 0.16 0.15 0.15 0.16 0.17 0.13 0.10 0.08 0.06 0.05 0.04 0.04 0.03 0.03 0.04 0.06 0.06 0.07 0.06 0.06 0.06 0.07 0.08 0.09 0.12 0.18 0.24 0.31 0.38
1.08 0.86 0.67 0.53 0.42 0.34 0.28 0.23 0.20 0.17 0.14 0.13 0.12 0.12 0.11 0.11 0.10 0.10 0.11 0.11 0.10 0.06 0.04 0.03 0.03 0.02 0.02 0.02 0.02 0.03 0.05 0.06 0.05 0.04 0.03 0.03 0.04 0.05 0.06 0.09 0.13 0.19 0.28
0.75 0.57 0.43 0.33 0.28 0.24 0.21 0.18 0.15 0.14 0.13 0.12 0.11 0.10 0.09 0.08 0.08 0.08 0.08 0.08 0.08 0.06 0.04 0.03 0.02 0.01 0.01 0.02 0.02 0.03 0.04 0.06 0.05 0.04 0.04 0.03 0.03 0.03 0.04 0.05 0.07 0.09 0.13
0.40 0.33 0.28 0.23 0.20 0.18 0.17 0.17 0.17 0.15 0.13 0.12 0.10 0.08 0.07 0.07 0.06 0.07 0.07 0.08 0.11 0.11 0.06 0.02 0.01 0.01 0.01 0.01 0.01 0.03 0.05 0.05 0.05 0.05 0.05 0.04 0.03 0.03 0.04 0.04 0.05 0.06 0.07
0.29 0.27 0.24 0.20 0.17 0.14 0.11 0.10 0.10 0.10 0.09 0.09 0.09 0.09 0.09 0.08 0.07 0.07 0.07 0.07 0.09 0.14 0.12 0.04 0.02 0.01 0.01 0.01 0.02 0.05 0.05 0.05 0.06 0.06 0.06 0.06 0.05 0.05 0.05 0.06 0.07 0.08 0.09
0.19 0.18 0.16 0.15 0.13 0.11 0.11 0.10 0.10 0.10 0.11 0.11 0.11 0.10 0.10 0.10 0.09 0.08 0.07 0.07 0.08 0.11 0.14 0.06 0.03 0.03 0.05 0.08 0.08 0.11 0.11 0.11 0.11 0.14 0.15 0.13 0.11 0.10 0.09 0.10 0.11 0.12 0.12
0.12 0.11 0.11 0.11 0.11 0.11 0.10 0.10 0.10 0.09 0.10 0.09 0.09 0.09 0.08 0.08 0.09 0.08 0.08 0.07 0.08 0.10 0.13 0.12 0.08 0.07 0.09 0.11 0.13 0.15 0.09 0.07 0.11 0.15 0.15 0.12 0.11 0.10 0.10 0.10 0.10 0.09 0.08
0.12 0.12 0.12 0.11 0.10 0.10 0.09 0.08 0.08 0.08 0.08 0.07 0.07 0.07 0.07 0.07 0.07 0.08 0.09 0.10 0.10 0.11 0.17 0.20 0.16 0.14 0.11 0.11 0.15 0.13 0.13 0.21 0.14 0.12 0.11 0.08 0.07 0.06 0.06 0.05 0.05 0.05 0.04
0.11 0.10 0.09 0.09 0.09 0.08 0.06 0.06 0.06 0.06 0.06 0.06 0.05 0.05 0.05 0.05 0.07 0.10 0.11 0.13 0.16 0.19 0.21 0.24 0.20 0.15 0.14 0.13 0.20 0.20 0.19 0.21 0.18 0.11 0.10 0.07 0.06 0.04 0.04 0.05 0.05 0.05 0.03
0.09 0.07 0.05 0.04 0.03 0.02 0.02 0.02 0.02 0.02 0.03 0.03 0.03 0.03 0.03 0.03 0.06 0.10 0.12 0.16 0.22 0.26 0.25 0.26 0.23 0.18 0.15 0.18 0.23 0.25 0.25 0.21 0.16 0.12 0.13 0.11 0.13 0.16 0.19 0.18 0.14 0.10 0.05
0.04 0.02 0.02 0.01 0.01 0.01 0.00 0.00 0.00 0.01 0.02 0.03 0.04 0.04 0.03 0.03 0.04 0.07 0.10 0.15 0.22 0.27 0.28 0.29 0.26 0.24 0.22 0.26 0.33 0.35 0.38 0.34 0.24 0.16 0.21 0.15 0.15 0.20 0.23 0.26 0.24 0.15 0.09
0.04 0.03 0.02 0.02 0.02 0.01 0.00 0.00 0.00 0.01 0.03 0.05 0.07 0.07 0.05 0.04 0.07 0.10 0.09 0.09 0.12 0.14 0.22 0.33 0.37 0.35 0.36 0.41 0.50 0.49 0.45 0.44 0.38 0.30 0.38 0.31 0.23 0.27 0.24 0.27 0.31 0.26 0.19
0.05 0.04 0.03 0.03 0.05 0.02 0.00 0.00 0.00 0.01 0.04 0.06 0.07 0.08 0.10 0.11 0.10 0.08 0.07 0.08 0.12 0.19 0.25 0.32 0.43 0.45 0.45 0.47 0.54 0.56 0.53 0.48 0.39 0.38 0.49 0.45 0.28 0.28 0.28 0.44 0.51 0.46 0.36
0.06 0.05 0.04 0.05 0.07 0.06 0.01 0.00 0.00 0.02 0.04 0.05 0.06 0.06 0.06 0.10 0.09 0.09 0.08 0.12 0.17 0.25 0.26 0.36 0.46 0.51 0.53 0.55 0.56 0.55 0.58 0.58 0.49 0.39 0.44 0.46 0.37 0.31 0.33 0.52 0.60 0.64 0.54
0.06 0.05 0.05 0.07 0.08 0.09 0.02 0.00 0.01 0.02 0.04 0.05 0.07 0.10 0.09 0.08 0.10 0.10 0.08 0.14 0.24 0.28 0.38 0.57 0.69 0.70 0.66 0.64 0.59 0.58 0.60 0.62 0.60 0.55 0.46 0.49 0.49 0.43 0.44 0.56 0.67 0.66 0.62

GEFSMA_prec_meanprecacc_072.txt.gz
Total_Precipitation_Accumulation
0.20 0.23 0.20 0.17 0.13 0.16 0.18 0.13 0.09 0.13 0.17 0.13 0.07 0.07 0.06 0.07 0.07 0.10 0.14 0.12 0.14 0.17 0.18 0.18 0.19 0.18 0.18 0.20 0.20 0.18 0.16 0.14 0.15 0.14 0.11 0.08 0.07 0.07 0.08 0.09 0.11 0.11 0.11
0.22 0.21 0.21 0.20 0.19 0.20 0.22 0.23 0.18 0.15 0.15 0.18 0.10 0.05 0.06 0.10 0.11 0.13 0.17 0.18 0.20 0.22 0.27 0.29 0.29 0.25 0.23 0.26 0.27 0.26 0.24 0.23 0.24 0.24 0.21 0.19 0.15 0.14 0.13 0.13 0.13 0.13 0.12
0.22 0.22 0.26 0.30 0.28 0.27 0.26 0.25 0.24 0.21 0.18 0.17 0.16 0.14 0.14 0.13 0.14 0.18 0.25 0.31 0.34 0.32 0.30 0.31 0.31 0.31 0.29 0.32 0.32 0.31 0.32 0.30 0.29 0.28 0.28 0.28 0.26 0.24 0.23 0.23 0.21 0.20 0.17
0.29 0.35 0.41 0.42 0.41 0.39 0.42 0.43 0.39 0.37 0.34 0.31 0.31 0.31 0.27 0.27 0.26 0.29 0.33 0.39 0.41 0.40 0.35 0.31 0.29 0.30 0.29 0.28 0.28 0.29 0.29 0.28 0.31 0.32 0.34 0.34 0.34 0.33 0.31 0.31 0.30 0.28 0.25
0.49 0.57 0.62 0.62 0.62 0.64 0.63 0.57 0.55 0.51 0.50 0.48 0.39 0.39 0.34 0.35 0.38 0.38 0.41 0.43 0.44 0.44 0.40 0.35 0.32 0.29 0.25 0.24 0.24 0.23 0.24 0.25 0.30 0.30 0.30 0.32 0.35 0.37 0.33 0.33 0.34 0.33 0.30
0.91 0.96 0.95 0.94 0.91 0.88 0.81 0.73 0.70 0.63 0.57 0.52 0.41 0.39 0.38 0.40 0.46 0.45 0.44 0.41 0.38 0.35 0.34 0.32 0.31 0.28 0.23 0.21 0.20 0.19 0.20 0.21 0.22 0.24 0.25 0.28 0.33 0.34 0.31 0.29 0.29 0.30 0.31
1.52 1.48 1.38 1.30 1.21 1.16 1.10 1.04 0.91 0.81 0.71 0.61 0.56 0.50 0.41 0.40 0.41 0.40 0.38 0.34 0.34 0.32 0.31 0.31 0.26 0.23 0.21 0.20 0.19 0.18 0.18 0.19 0.21 0.24 0.26 0.28 0.30 0.30 0.29 0.28 0.29 0.29 0.29
2.04 1.99 1.90 1.80 1.61 1.46 1.29 1.15 1.03 0.94 0.79 0.65 0.61 0.58 0.48 0.36 0.30 0.27 0.26 0.26 0.27 0.29 0.29 0.27 0.24 0.21 0.17 0.15 0.15 0.15 0.15 0.15 0.18 0.22 0.28 0.34 0.37 0.37 0.35 0.34 0.32 0.33 0.33
2.54 2.40 2.23 2.03 1.83 1.65 1.51 1.33 1.14 0.99 0.83 0.68 0.60 0.56 0.51 0.44 0.33 0.24 0.21 0.21 0.20 0.20 0.20 0.19 0.17 0.15 0.14 0.12 0.12 0.15 0.14 0.13 0.14 0.17 0.23 0.30 0.34 0.34 0.35 0.35 0.35 0.38 0.40
2.55 2.32 2.22 2.10 1.90 1.60 1.33 1.09 0.90 0.74 0.62 0.53 0.46 0.40 0.36 0.33 0.32 0.27 0.19 0.16 0.14 0.13 0.12 0.11 0.11 0.12 0.12 0.12 0.15 0.18 0.18 0.16 0.17 0.17 0.19 0.23 0.25 0.29 0.34 0.41 0.45 0.47 0.48
2.28 2.05 1.91 1.74 1.45 1.12 0.84 0.65 0.51 0.43 0.39 0.36 0.32 0.30 0.29 0.28 0.27 0.27 0.23 0.16 0.14 0.13 0.13 0.14 0.13 0.12 0.11 0.11 0.15 0.20 0.21 0.18 0.17 0.16 0.17 0.19 0.21 0.23 0.27 0.33 0.40 0.45 0.49
1.87 1.53 1.24 0.96 0.75 0.61 0.50 0.42 0.35 0.30 0.27 0.25 0.24 0.22 0.21 0.21 0.21 0.23 0.22 0.17 0.13 0.11 0.11 0.11 0.12 0.11 0.10 0.10 0.12 0.16 0.15 0.14 0.13 0.12 0.11 0.11 0.11 0.13 0.15 0.21 0.28 0.36 0.43
1.22 0.96 0.73 0.57 0.44 0.35 0.29 0.25 0.21 0.18 0.17 0.16 0.15 0.15 0.15 0.15 0.14 0.14 0.15 0.15 0.13 0.10 0.09 0.09 0.09 0.10 0.11 0.11 0.11 0.12 0.12 0.11 0.10 0.08 0.07 0.06 0.06 0.07 0.08 0.11 0.16 0.22 0.31
0.80 0.61 0.46 0.35 0.29 0.25 0.22 0.19 0.16 0.16 0.15 0.14 0.14 0.13 0.12 0.12 0.12 0.12 0.13 0.13 0.14 0.12 0.10 0.09 0.07 0.07 0.07 0.08 0.08 0.09 0.08 0.09 0.08 0.07 0.06 0.05 0.04 0.04 0.05 0.06 0.08 0.10 0.14
0.43 0.35 0.30 0.25 0.21 0.19 0.18 0.18 0.18 0.16 0.15 0.14 0.12 0.10 0.10 0.09 0.09 0.10 0.11 0.13 0.17 0.18 0.13 0.08 0.06 0.04 0.04 0.04 0.05 0.05 0.07 0.07 0.07 0.06 0.05 0.04 0.04 0.04 0.04 0.05 0.06 0.07 0.08
0.31 0.28 0.25 0.21 0.18 0.15 0.13 0.12 0.12 0.11 0.11 0.11 0.11 0.11 0.11 0.10 0.10 0.10 0.10 0.11 0.14 0.18 0.16 0.08 0.06 0.05 0.05 0.05 0.05 0.06 0.06 0.06 0.06 0.07 0.07 0.06 0.06 0.06 0.06 0.07 0.08 0.09 0.09
0.20 0.18 0.16 0.15 0.13 0.12 0.11 0.11 0.11 0.11 0.12 0.12 0.12 0.11 0.11 0.11 0.10 0.09 0.09 0.09 0.10 0.14 0.16 0.09 0.07 0.07 0.08 0.10 0.10 0.12 0.11 0.12 0.11 0.14 0.15 0.13 0.12 0.10 0.10 0.11 0.12 0.12 0.12
0.12 0.11 0.11 0.11 0.11 0.11 0.11 0.10 0.10 0.10 0.10 0.10 0.09 0.09 0.08 0.08 0.10 0.09 0.09 0.09 0.09 0.12 0.16 0.14 0.10 0.09 0.11 0.13 0.15 0.16 0.10 0.08 0.11 0.15 0.15 0.12 0.11 0.11 0.10 0.10 0.10 0.09 0.08
0.12 0.12 0.12 0.11 0.10 0.10 0.09 0.09 0.09 0.08 0.08 0.07 0.07 0.07 0.07 0.07 0.08 0.09 0.11 0.11 0.12 0.13 0.19 0.22 0.18 0.15 0.13 0.11 0.16 0.14 0.14 0.21 0.14 0.12 0.11 0.08 0.07 0.06 0.06 0.05 0.05 0.05 0.04
0.11 0.10 0.09 0.09 0.09 0.08 0.06 0.06 0.06 0.06 0.06 0.06 0.05 0.05 0.05 0.06 0.07 0.10 0.12 0.14 0.17 0.20 0.23 0.25 0.20 0.16 0.14 0.13 0.20 0.21 0.19 0.21 0.19 0.11 0.10 0.07 0.06 0.04 0.04 0.05 0.06 0.05 0.03
0.09 0.07 0.05 0.04 0.03 0.02 0.02 0.02 0.02 0.02 0.03 0.03 0.03 0.03 0.03 0.03 0.06 0.10 0.12 0.16 0.22 0.26 0.25 0.26 0.23 0.18 0.15 0.18 0.23 0.25 0.26 0.21 0.16 0.12 0.13 0.11 0.14 0.16 0.19 0.18 0.14 0.10 0.06
0.04 0.02 0.02 0.01 0.01 0.01 0.00 0.00 0.00 0.01 0.02 0.03 0.04 0.04 0.03 0.03 0.04 0.07 0.10 0.15 0.22 0.27 0.28 0.29 0.26 0.24 0.22 0.27 0.33 0.36 0.38 0.34 0.24 0.17 0.21 0.15 0.15 0.20 0.24 0.26 0.24 0.15 0.09
0.04 0.03 0.02 0.02 0.02 0.01 0.00 0.00 0.00 0.01 0.03 0.06 0.07 0.07 0.05 0.04 0.08 0.10 0.09 0.09 0.12 0.14 0.23 0.33 0.37 0.35 0.36 0.41 0.51 0.49 0.45 0.44 0.38 0.30 0.39 0.31 0.23 0.27 0.24 0.27 0.32 0.26 0.19
0.05 0.05 0.04 0.03 0.05 0.02 0.00 0.00 0.00 0.01 0.04 0.06 0.07 0.08 0.10 0.12 0.10 0.08 0.07 0.08 0.12 0.19 0.25 0.33 0.43 0.45 0.45 0.48 0.55 0.57 0.53 0.48 0.39 0.38 0.50 0.45 0.28 0.29 0.28 0.44 0.51 0.46 0.36
0.06 0.05 0.04 0.05 0.07 0.06 0.01 0.00 0.00 0.02 0.04 0.05 0.06 0.07 0.07 0.11 0.09 0.09 0.08 0.12 0.17 0.25 0.26 0.36 0.47 0.51 0.53 0.55 0.56 0.55 0.58 0.58 0.49 0.39 0.44 0.47 0.38 0.32 0.33 0.52 0.60 0.65 0.55
0.07 0.05 0.05 0.07 0.08 0.09 0.02 0.00 0.01 0.02 0.04 0.05 0.07 0.10 0.09 0.08 0.10 0.10 0.08 0.14 0.24 0.28 0.38 0.57 0.69 0.71 0.67 0.64 0.60 0.59 0.61 0.62 0.60 0.55 0.47 0.49 0.49 0.44 0.44 0.56 0.68 0.67 0.62

GEFSMA_prec_meanprecacc_078.txt.gz
Total_Precipitation_Accumulation
0.21 0.24 0.21 0.18 0.14 0.17 0.19 0.15 0.12 0.17 0.21 0.18 0.11 0.09 0.08 0.08 0.09 0.11 0.16 0.14 0.17 0.24 0.27 0.27 0.25 0.22 0.21 0.24 0.24 0.21 0.19 0.17 0.18 0.16 0.13 0.10 0.09 0.09 0.10 0.11 0.13 0.13 0.14
0.24 0.24 0.25 0.24 0.23 0.23 0.26 0.27 0.23 0.20 0.20 0.22 0.14 0.09 0.09 0.13 0.14 0.15 0.19 0.21 0.25 0.30 0.37 0.42 0.42 0.36 0.33 0.35 0.34 0.31 0.30 0.28 0.28 0.28 0.24 0.21 0.18 0.16 0.16 0.16 0.17 0.16 0.15
0.26 0.26 0.32 0.36 0.33 0.32 0.31 0.32 0.31 0.26 0.23 0.21 0.19 0.18 0.17 0.17 0.18 0.21 0.29 0.37 0.40 0.40 0.41 0.44 0.45 0.46 0.44 0.46 0.44 0.41 0.41 0.38 0.35 0.34 0.33 0.32 0.30 0.28 0.27 0.26 0.25 0.23 0.20
0.34 0.42 0.49 0.49 0.48 0.47 0.49 0.51 0.47 0.42 0.39 0.36 0.35 0.35 0.31 0.31 0.32 0.36 0.41 0.49 0.51 0.48 0.45 0.41 0.41 0.45 0.46 0.46 0.46 0.46 0.43 0.39 0.40 0.41 0.41 0.42 0.40 0.38 0.35 0.34 0.33 0.30 0.27
0.62 0.70 0.74 0.73 0.73 0.76 0.74 0.67 0.66 0.60 0.58 0.55 0.45 0.45 0.38 0.40 0.44 0.45 0.50 0.54 0.57 0.56 0.52 0.48 0.46 0.45 0.43 0.44 0.45 0.43 0.42 0.42 0.44 0.42 0.41 0.42 0.43 0.42 0.37 0.35 0.36 0.35 0.32
1.12 1.16 1.14 1.12 1.08 1.04 0.96 0.87 0.83 0.74 0.67 0.62 0.49 0.45 0.43 0.45 0.50 0.50 0.49 0.49 0.47 0.45 0.45 0.46 0.46 0.43 0.39 0.39 0.40 0.39 0.40 0.42 0.40 0.39 0.38 0.40 0.43 0.41 0.36 0.33 0.33 0.34 0.35
1.80 1.74 1.63 1.55 1.45 1.37 1.27 1.19 1.04 0.93 0.82 0.71 0.64 0.56 0.45 0.43 0.44 0.43 0.41 0.38 0.40 0.41 0.41 0.41 0.37 0.36 0.34 0.36 0.36 0.34 0.37 0.41 0.43 0.44 0.44 0.44 0.43 0.40 0.37 0.35 0.36 0.35 0.35
2.37 2.28 2.19 2.09 1.88 1.68 1.48 1.31 1.18 1.08 0.92 0.75 0.69 0.64 0.51 0.38 0.32 0.30 0.29 0.29 0.30 0.35 0.37 0.38 0.38 0.37 0.34 0.33 0.34 0.36 0.37 0.39 0.42 0.45 0.49 0.54 0.56 0.54 0.52 0.48 0.45 0.43 0.40
2.88 2.72 2.58 2.29 2.01 1.80 1.64 1.46 1.27 1.13 0.95 0.77 0.68 0.62 0.54 0.46 0.34 0.25 0.22 0.22 0.22 0.22 0.23 0.24 0.23 0.22 0.23 0.24 0.27 0.33 0.35 0.33 0.36 0.40 0.47 0.53 0.56 0.55 0.54 0.53 0.52 0.52 0.51
2.84 2.59 2.45 2.30 2.06 1.74 1.44 1.19 0.99 0.82 0.70 0.60 0.51 0.44 0.39 0.35 0.34 0.29 0.21 0.17 0.15 0.14 0.14 0.13 0.14 0.16 0.19 0.21 0.27 0.33 0.34 0.33 0.35 0.37 0.39 0.42 0.45 0.48 0.52 0.57 0.61 0.63 0.64
2.49 2.23 2.06 1.87 1.58 1.24 0.94 0.73 0.58 0.49 0.44 0.40 0.36 0.33 0.32 0.30 0.29 0.29 0.25 0.17 0.15 0.16 0.16 0.17 0.17 0.17 0.17 0.19 0.23 0.32 0.34 0.29 0.29 0.30 0.31 0.33 0.35 0.38 0.42 0.48 0.54 0.59 0.63
2.01 1.65 1.33 1.04 0.82 0.66 0.54 0.45 0.38 0.32 0.28 0.26 0.25 0.23 0.22 0.23 0.23 0.25 0.25 0.20 0.16 0.14 0.13 0.13 0.14 0.14 0.14 0.15 0.18 0.25 0.23 0.23 0.22 0.21 0.21 0.22 0.22 0.23 0.26 0.32 0.39 0.46 0.53
1.34 1.06 0.81 0.63 0.48 0.38 0.31 0.26 0.22 0.19 0.17 0.17 0.16 0.17 0.17 0.16 0.15 0.16 0.17 0.17 0.15 0.12 0.11 0.12 0.12 0.13 0.14 0.16 0.17 0.20 0.19 0.18 0.17 0.15 0.14 0.13 0.12 0.12 0.14 0.17 0.22 0.29 0.38
0.87 0.66 0.50 0.38 0.31 0.27 0.22 0.19 0.17 0.16 0.15 0.14 0.14 0.14 0.13 0.12 0.12 0.13 0.14 0.14 0.15 0.14 0.12 0.12 0.10 0.09 0.10 0.11 0.14 0.17 0.15 0.17 0.15 0.12 0.11 0.09 0.08 0.08 0.08 0.10 0.12 0.15 0.19
0.46 0.37 0.31 0.26 0.22 0.19 0.18 0.18 0.18 0.17 0.15 0.14 0.12 0.11 0.10 0.10 0.10 0.11 0.12 0.14 0.18 0.19 0.14 0.10 0.08 0.06 0.06 0.07 0.09 0.09 0.11 0.13 0.12 0.10 0.09 0.07 0.06 0.06 0.06 0.07 0.08 0.09 0.10
0.33 0.29 0.26 0.23 0.19 0.16 0.13 0.12 0.12 0.11 0.11 0.11 0.11 0.11 0.11 0.10 0.10 0.10 0.11 0.12 0.14 0.19 0.17 0.09 0.07 0.06 0.06 0.06 0.08 0.08 0.09 0.10 0.10 0.09 0.09 0.08 0.08 0.07 0.08 0.08 0.10 0.11 0.11
0.21 0.19 0.17 0.15 0.14 0.12 0.11 0.11 0.11 0.11 0.12 0.12 0.12 0.11 0.11 0.11 0.11 0.09 0.09 0.10 0.10 0.14 0.17 0.10 0.07 0.07 0.09 0.11 0.11 0.13 0.13 0.14 0.13 0.16 0.16 0.15 0.13 0.11 0.11 0.12 0.13 0.14 0.14
0.13 0.12 0.12 0.11 0.11 0.11 0.11 0.10 0.10 0.10 0.10 0.10 0.09 0.09 0.08 0.08 0.10 0.09 0.09 0.09 0.10 0.13 0.16 0.15 0.11 0.10 0.11 0.13 0.15 0.17 0.10 0.09 0.12 0.16 0.16 0.13 0.12 0.11 0.11 0.11 0.11 0.10 0.09
0.13 0.13 0.12 0.11 0.10 0.10 0.09 0.09 0.09 0.08 0.08 0.07 0.07 0.07 0.07 0.07 0.08 0.09 0.11 0.11 0.12 0.13 0.19 0.23 0.18 0.15 0.13 0.12 0.16 0.14 0.14 0.22 0.15 0.13 0.11 0.09 0.08 0.07 0.06 0.05 0.06 0.05 0.04
0.11 0.10 0.10 0.09 0.09 0.08 0.06 0.06 0.06 0.06 0.06 0.06 0.05 0.05 0.05 0.06 0.07 0.10 0.12 0.14 0.17 0.20 0.23 0.25 0.20 0.16 0.14 0.13 0.21 0.21 0.19 0.22 0.19 0.11 0.10 0.07 0.06 0.04 0.04 0.05 0.06 0.05 0.04
0.09 0.07 0.05 0.04 0.03 0.02 0.02 0.02 0.02 0.02 0.03 0.03 0.03 0.03 0.03 0.03 0.06 0.10 0.12 0.16 0.22 0.26 0.26 0.27 0.23 0.19 0.15 0.18 0.23 0.25 0.26 0.21 0.16 0.12 0.13 0.11 0.14 0.16 0.19 0.18 0.14 0.10 0.06
0.04 0.02 0.02 0.01 0.01 0.01 0.00 0.00 0.00 0.01 0.02 0.03 0.04 0.04 0.03 0.03 0.04 0.07 0.10 0.15 0.22 0.27 0.28 0.30 0.26 0.25 0.22 0.27 0.34 0.36 0.38 0.34 0.24 0.17 0.21 0.15 0.15 0.20 0.24 0.26 0.24 0.15 0.09
0.04 0.03 0.02 0.02 0.02 0.01 0.00 0.00 0.00 0.01 0.03 0.06 0.07 0.07 0.05 0.04 0.08 0.10 0.09 0.09 0.12 0.14 0.23 0.33 0.37 0.35 0.36 0.41 0.51 0.49 0.45 0.44 0.38 0.30 0.39 0.31 0.23 0.27 0.24 0.27 0.32 0.26 0.19
0.05 0.05 0.04 0.03 0.05 0.02 0.00 0.00 0.00 0.01 0.04 0.06 0.07 0.08 0.10 0.12 0.10 0.08 0.07 0.08 0.12 0.19 0.25 0.33 0.43 0.45 0.46 0.48 0.55 0.57 0.53 0.48 0.39 0.38 0.50 0.45 0.28 0.29 0.28 0.44 0.51 0.46 0.36
0.06 0.05 0.04 0.05 0.07 0.06 0.01 0.00 0.00 0.02 0.04 0.05 0.06 0.07 0.07 0.11 0.09 0.09 0.08 0.12 0.17 0.25 0.26 0.36 0.47 0.52 0.53 0.56 0.56 0.56 0.58 0.59 0.49 0.39 0.44 0.47 0.38 0.32 0.33 0.52 0.60 0.65 0.55
0.07 0.05 0.05 0.07 0.08 0.09 0.02 0.00 0.01 0.02 0.04 0.05 0.07 0.10 0.09 0.08 0.10 0.10 0.08 0.14 0.24 0.28 0.38 0.57 0.69 0.71 0.67 0.65 0.61 0.59 0.61 0.62 0.60 0.55 0.47 0.49 0.50 0.44 0.44 0.56 0.68 0.67 0.62

GEFSMA_prec_meanprecacc_084.txt.gz
Total_Precipitation_Accumulation
0.23 0.27 0.24 0.20 0.16 0.19 0.22 0.18 0.14 0.19 0.23 0.20 0.12 0.10 0.09 0.10 0.12 0.13 0.18 0.16 0.19 0.29 0.37 0.40 0.40 0.36 0.34 0.35 0.33 0.29 0.24 0.21 0.22 0.21 0.17 0.14 0.12 0.13 0.13 0.14 0.16 0.16 0.16
0.27 0.28 0.30 0.29 0.28 0.28 0.31 0.33 0.28 0.26 0.27 0.27 0.18 0.11 0.11 0.16 0.18 0.18 0.23 0.25 0.28 0.34 0.46 0.56 0.59 0.52 0.47 0.48 0.46 0.42 0.39 0.37 0.36 0.35 0.31 0.26 0.22 0.20 0.20 0.19 0.20 0.18 0.17
0.32 0.32 0.39 0.43 0.41 0.40 0.39 0.39 0.37 0.32 0.29 0.26 0.25 0.22 0.20 0.19 0.21 0.23 0.31 0.41 0.44 0.44 0.47 0.53 0.58 0.61 0.62 0.65 0.65 0.61 0.58 0.52 0.48 0.45 0.44 0.41 0.37 0.33 0.31 0.30 0.28 0.26 0.23
0.41 0.49 0.59 0.59 0.58 0.56 0.59 0.62 0.56 0.51 0.47 0.43 0.41 0.40 0.34 0.33 0.34 0.38 0.44 0.53 0.57 0.54 0.51 0.50 0.51 0.56 0.60 0.66 0.69 0.70 0.64 0.57 0.57 0.57 0.56 0.56 0.52 0.48 0.43 0.41 0.39 0.35 0.31
0.72 0.80 0.87 0.88 0.88 0.89 0.86 0.77 0.76 0.69 0.68 0.65 0.51 0.50 0.42 0.42 0.47 0.47 0.52 0.58 0.61 0.60 0.57 0.55 0.53 0.54 0.55 0.60 0.65 0.66 0.64 0.64 0.65 0.61 0.57 0.59 0.60 0.57 0.48 0.44 0.43 0.41 0.38
1.32 1.36 1.33 1.31 1.24 1.18 1.06 0.97 0.93 0.84 0.77 0.71 0.56 0.50 0.47 0.48 0.53 0.53 0.52 0.51 0.51 0.48 0.49 0.50 0.52 0.49 0.46 0.49 0.53 0.55 0.60 0.63 0.62 0.60 0.59 0.61 0.61 0.54 0.45 0.41 0.40 0.40 0.41
2.06 2.00 1.86 1.75 1.62 1.51 1.39 1.30 1.14 1.01 0.90 0.78 0.72 0.63 0.50 0.46 0.46 0.46 0.43 0.40 0.42 0.44 0.43 0.44 0.40 0.39 0.38 0.42 0.43 0.44 0.49 0.57 0.64 0.68 0.69 0.67 0.62 0.56 0.51 0.48 0.47 0.45 0.43
2.62 2.53 2.42 2.29 2.06 1.84 1.61 1.42 1.26 1.14 0.98 0.82 0.76 0.72 0.59 0.44 0.36 0.33 0.31 0.30 0.31 0.35 0.38 0.39 0.40 0.39 0.37 0.37 0.40 0.45 0.48 0.54 0.62 0.65 0.68 0.72 0.72 0.70 0.68 0.65 0.61 0.58 0.54
3.13 2.98 2.81 2.50 2.20 1.96 1.77 1.56 1.35 1.21 1.03 0.85 0.75 0.71 0.64 0.55 0.40 0.29 0.24 0.23 0.22 0.22 0.24 0.24 0.24 0.24 0.26 0.28 0.32 0.41 0.45 0.45 0.49 0.53 0.59 0.65 0.68 0.68 0.68 0.68 0.67 0.70 0.69
3.06 2.80 2.65 2.50 2.24 1.88 1.54 1.27 1.06 0.90 0.78 0.67 0.58 0.51 0.46 0.42 0.41 0.35 0.24 0.19 0.17 0.15 0.15 0.14 0.15 0.18 0.21 0.23 0.31 0.38 0.42 0.42 0.45 0.47 0.47 0.50 0.53 0.57 0.61 0.68 0.71 0.74 0.76
2.72 2.45 2.26 2.05 1.73 1.36 1.03 0.80 0.63 0.54 0.49 0.44 0.40 0.38 0.37 0.35 0.34 0.35 0.30 0.20 0.18 0.18 0.17 0.18 0.18 0.18 0.18 0.20 0.26 0.37 0.41 0.36 0.36 0.36 0.37 0.39 0.40 0.44 0.49 0.55 0.62 0.68 0.72
2.28 1.90 1.55 1.21 0.95 0.77 0.62 0.52 0.43 0.36 0.32 0.29 0.27 0.26 0.25 0.25 0.26 0.28 0.28 0.22 0.18 0.16 0.14 0.15 0.15 0.15 0.15 0.16 0.20 0.29 0.27 0.27 0.26 0.26 0.26 0.27 0.27 0.29 0.32 0.39 0.46 0.54 0.62
1.63 1.33 1.02 0.80 0.60 0.47 0.38 0.31 0.26 0.23 0.20 0.19 0.18 0.18 0.18 0.17 0.16 0.16 0.17 0.18 0.16 0.13 0.12 0.12 0.13 0.13 0.15 0.16 0.18 0.23 0.22 0.21 0.20 0.18 0.17 0.17 0.16 0.17 0.19 0.23 0.28 0.35 0.44
1.11 0.86 0.65 0.50 0.40 0.33 0.27 0.23 0.19 0.18 0.17 0.16 0.15 0.14 0.13 0.13 0.13 0.13 0.14 0.15 0.16 0.15 0.13 0.12 0.10 0.10 0.10 0.12 0.15 0.18 0.17 0.19 0.17 0.14 0.13 0.11 0.11 0.11 0.11 0.13 0.16 0.19 0.23
0.60 0.49 0.40 0.32 0.26 0.23 0.20 0.20 0.19 0.17 0.16 0.14 0.12 0.11 0.10 0.10 0.10 0.11 0.12 0.14 0.18 0.19 0.15 0.10 0.08 0.07 0.06 0.07 0.10 0.10 0.12 0.15 0.13 0.12 0.10 0.08 0.08 0.08 0.09 0.10 0.11 0.12 0.14
0.40 0.36 0.31 0.26 0.22 0.18 0.14 0.13 0.13 0.12 0.11 0.11 0.11 0.11 0.11 0.10 0.10 0.10 0.11 0.12 0.14 0.19 0.17 0.09 0.07 0.06 0.06 0.07 0.08 0.09 0.10 0.10 0.10 0.10 0.09 0.09 0.09 0.09 0.09 0.10 0.12 0.13 0.14
0.26 0.22 0.20 0.17 0.15 0.13 0.12 0.12 0.12 0.12 0.13 0.12 0.12 0.11 0.11 0.11 0.11 0.09 0.09 0.10 0.10 0.14 0.17 0.10 0.07 0.07 0.09 0.11 0.11 0.13 0.13 0.14 0.14 0.17 0.17 0.15 0.14 0.12 0.12 0.14 0.15 0.16 0.16
0.17 0.15 0.14 0.13 0.12 0.12 0.11 0.10 0.10 0.10 0.10 0.10 0.09 0.09 0.08 0.08 0.10 0.09 0.09 0.09 0.10 0.13 0.16 0.15 0.11 0.10 0.11 0.14 0.15 0.17 0.11 0.09 0.13 0.17 0.16 0.14 0.13 0.13 0.13 0.13 0.12 0.12 0.10
0.14 0.14 0.13 0.11 0.11 0.10 0.09 0.09 0.09 0.09 0.08 0.08 0.07 0.07 0.07 0.07 0.08 0.09 0.11 0.12 0.12 0.13 0.19 0.23 0.18 0.16 0.13 0.12 0.16 0.14 0.14 0.22 0.15 0.13 0.12 0.09 0.08 0.07 0.07 0.06 0.06 0.06 0.05
0.11 0.10 0.10 0.09 0.09 0.08 0.07 0.06 0.06 0.06 0.06 0.06 0.05 0.05 0.05 0.06 0.07 0.10 0.12 0.14 0.17 0.20 0.23 0.25 0.21 0.16 0.15 0.13 0.21 0.22 0.20 0.22 0.19 0.12 0.10 0.07 0.06 0.04 0.04 0.05 0.06 0.05 0.04
0.09 0.07 0.05 0.04 0.03 0.02 0.02 0.02 0.02 0.02 0.03 0.03 0.03 0.03 0.03 0.03 0.06 0.10 0.12 0.16 0.22 0.26 0.26 0.27 0.24 0.20 0.16 0.20 0.24 0.26 0.27 0.22 0.18 0.13 0.14 0.13 0.15 0.18 0.21 0.19 0.14 0.10 0.06
0.04 0.02 0.02 0.01 0.01 0.01 0.00 0.00 0.00 0.01 0.02 0.03 0.04 0.04 0.03 0.03 0.04 0.07 0.10 0.15 0.22 0.27 0.29 0.30 0.28 0.27 0.24 0.29 0.35 0.37 0.40 0.36 0.27 0.19 0.23 0.17 0.16 0.22 0.27 0.28 0.25 0.16 0.09
0.04 0.03 0.02 0.02 0.03 0.01 0.00 0.00 0.00 0.01 0.03 0.06 0.08 0.08 0.06 0.04 0.08 0.11 0.10 0.09 0.12 0.14 0.23 0.34 0.38 0.37 0.39 0.43 0.52 0.52 0.48 0.46 0.41 0.33 0.41 0.34 0.26 0.30 0.26 0.28 0.32 0.26 0.20
0.05 0.05 0.04 0.04 0.05 0.02 0.00 0.00 0.00 0.02 0.05 0.07 0.08 0.09 0.11 0.13 0.10 0.08 0.07 0.08 0.13 0.20 0.25 0.33 0.45 0.48 0.47 0.49 0.56 0.58 0.55 0.50 0.43 0.43 0.52 0.49 0.32 0.31 0.30 0.46 0.52 0.46 0.36
0.07 0.05 0.04 0.06 0.08 0.06 0.01 0.00 0.00 0.02 0.05 0.06 0.07 0.07 0.07 0.11 0.09 0.09 0.09 0.14 0.20 0.28 0.26 0.36 0.47 0.52 0.53 0.56 0.57 0.57 0.62 0.63 0.56 0.46 0.48 0.51 0.43 0.35 0.38 0.57 0.62 0.65 0.55
0.08 0.06 0.06 0.07 0.09 0.09 0.02 0.00 0.01 0.02 0.04 0.05 0.07 0.11 0.09 0.08 0.10 0.10 0.09 0.17 0.27 0.31 0.40 0.59 0.71 0.73 0.69 0.66 0.62 0.62 0.66 0.68 0.67 0.63 0.53 0.54 0.56 0.48 0.50 0.61 0.71 0.69 0.65